| State | Oklahoma | Latest | Low (568 cfs) | |
| River | Illinois River | Rating | Observed | Estimated |
| Updated | 2026-05-10 17:30 (57 minutes ago) | Flood - The river is flooding. Obstacles can be treacherous or deadly. The river should be avoided at this stage for casual trips and definitely for the inexperienced. Trips should be attempted only with protective gear and equipment.Flood | (none) | 2413 |
| Discharge | 568 cfs (median: 628 cfs) | High - The river is high and potentially dangerous, especially for the young and / or inexperienced. Normal stream obstacles are sometimes difficult to navigate. Extended distances can be attempted, but canoe travel may not be advisable.High | (none) | 1205 |
| Height | 3.23 feet | Good - Conditions are ideal for a canoe or kayak. Boats typically will drag on fewer than one-quarter of riffles, if at all, and portages are unnecessary or rare. Normal float lengths can be attempted without a problem.Good | (none) | 622 |
| Trend | Steady (falling over 24 hours) | Low - River is low but can still be floated. Some riffles are okay but most come with significant dragging and might need a portage. Float lengths should be reduced to accommodate low flow, dragging, and portages.Low | (none) | 399 |
| USGS | USGS Site ( Duck Duck Go Maps) | Poor - River is too low to float comfortably. Most or all riffles will drag or must be portaged and some obstacles (such as slick shelf rock) cause undue problems. Avoid the river at this stage for casual paddling trips.Poor | (none) | 189 |
| Date | Start | End | Distance | Condition | Discharge | Height | Fishing | Details |
|---|
A total of 0 rows are displayed.
BLG - Bluegill
CCF - Channel Catfish
CP - Chain Pickerel
FWD - Freshwater Drum
GSF - Green Sunfish
KSB - Kentucky Spotted Bass
LMB - Largemouth Bass
LSF - Longear Sunfish
RB - Rock Bass / Goggle Eye
RSF - Redear Sunfish
RT - Rainbow Trout
SMB - Smallmouth Bass
WB - White Bass
WF - Whitefish
WL - WalleyeThe classic River Trips application is still available for use. It is updated with the new system using a data retrofit. It is no longer maintained. The original River Trips application is no longer updated (as of 1 Dec 2016) but can be checked for errors or for the condition of the data before it was converted to the new system.
| Observation | Height | Discharge | Maximum Discharge | Minimum Discharge | Mean Discharge | P05 | P10 | P20 | P25 | P50 (Median) | P75 | P80 | P90 | P95 |
|---|---|---|---|---|---|---|---|---|---|---|---|---|---|---|
| 2026-05-10 17:30 | 3.23 | 568 | 13700 (1993) | 144 (1964) | 1220 | 164 | 187 | 325 | 403 | 628 | 1120 | 1300 | 2550 | 3400 |
| 2026-05-10 16:30 | 3.23 | 568 | 13700 (1993) | 144 (1964) | 1220 | 164 | 187 | 325 | 403 | 628 | 1120 | 1300 | 2550 | 3400 |
| 2026-05-10 15:30 | 3.24 | 572 | 13700 (1993) | 144 (1964) | 1220 | 164 | 187 | 325 | 403 | 628 | 1120 | 1300 | 2550 | 3400 |
| 2026-05-10 14:30 | 3.24 | 572 | 13700 (1993) | 144 (1964) | 1220 | 164 | 187 | 325 | 403 | 628 | 1120 | 1300 | 2550 | 3400 |
| 2026-05-10 13:30 | 3.24 | 572 | 13700 (1993) | 144 (1964) | 1220 | 164 | 187 | 325 | 403 | 628 | 1120 | 1300 | 2550 | 3400 |
| 2026-05-10 12:30 | 3.25 | 576 | 13700 (1993) | 144 (1964) | 1220 | 164 | 187 | 325 | 403 | 628 | 1120 | 1300 | 2550 | 3400 |
| 2026-05-10 11:30 | 3.26 | 580 | 13700 (1993) | 144 (1964) | 1220 | 164 | 187 | 325 | 403 | 628 | 1120 | 1300 | 2550 | 3400 |
| 2026-05-10 10:30 | 3.27 | 585 | 13700 (1993) | 144 (1964) | 1220 | 164 | 187 | 325 | 403 | 628 | 1120 | 1300 | 2550 | 3400 |
| 2026-05-10 09:30 | 3.27 | 585 | 13700 (1993) | 144 (1964) | 1220 | 164 | 187 | 325 | 403 | 628 | 1120 | 1300 | 2550 | 3400 |
| 2026-05-10 08:30 | 3.26 | 580 | 13700 (1993) | 144 (1964) | 1220 | 164 | 187 | 325 | 403 | 628 | 1120 | 1300 | 2550 | 3400 |
| 2026-05-10 07:30 | 3.26 | 580 | 13700 (1993) | 144 (1964) | 1220 | 164 | 187 | 325 | 403 | 628 | 1120 | 1300 | 2550 | 3400 |
| 2026-05-10 06:30 | 3.27 | 585 | 13700 (1993) | 144 (1964) | 1220 | 164 | 187 | 325 | 403 | 628 | 1120 | 1300 | 2550 | 3400 |
| 2026-05-10 05:30 | 3.27 | 585 | 13700 (1993) | 144 (1964) | 1220 | 164 | 187 | 325 | 403 | 628 | 1120 | 1300 | 2550 | 3400 |
| 2026-05-10 04:30 | 3.27 | 585 | 13700 (1993) | 144 (1964) | 1220 | 164 | 187 | 325 | 403 | 628 | 1120 | 1300 | 2550 | 3400 |
| 2026-05-10 03:30 | 3.27 | 585 | 13700 (1993) | 144 (1964) | 1220 | 164 | 187 | 325 | 403 | 628 | 1120 | 1300 | 2550 | 3400 |
| 2026-05-10 02:30 | 3.27 | 585 | 13700 (1993) | 144 (1964) | 1220 | 164 | 187 | 325 | 403 | 628 | 1120 | 1300 | 2550 | 3400 |
| 2026-05-10 01:30 | 3.28 | 589 | 13700 (1993) | 144 (1964) | 1220 | 164 | 187 | 325 | 403 | 628 | 1120 | 1300 | 2550 | 3400 |
| 2026-05-10 00:30 | 3.28 | 589 | 13700 (1993) | 144 (1964) | 1220 | 164 | 187 | 325 | 403 | 628 | 1120 | 1300 | 2550 | 3400 |
| 2026-05-09 23:30 | 3.28 | 589 | 13700 (1993) | 144 (1964) | 1220 | 164 | 187 | 325 | 403 | 628 | 1120 | 1300 | 2550 | 3400 |
| 2026-05-09 22:30 | 3.29 | 593 | 9850 (1995) | 117 (1964) | 1200 | 168 | 195 | 286 | 368 | 601 | 1200 | 1600 | 2860 | 5710 |
| 2026-05-09 21:30 | 3.29 | 593 | 9850 (1995) | 117 (1964) | 1200 | 168 | 195 | 286 | 368 | 601 | 1200 | 1600 | 2860 | 5710 |
| 2026-05-09 20:30 | 3.29 | 593 | 9850 (1995) | 117 (1964) | 1200 | 168 | 195 | 286 | 368 | 601 | 1200 | 1600 | 2860 | 5710 |
| 2026-05-09 19:30 | 3.29 | 593 | 9850 (1995) | 117 (1964) | 1200 | 168 | 195 | 286 | 368 | 601 | 1200 | 1600 | 2860 | 5710 |
| 2026-05-09 18:30 | 3.30 | 597 | 9850 (1995) | 117 (1964) | 1200 | 168 | 195 | 286 | 368 | 601 | 1200 | 1600 | 2860 | 5710 |
| 2026-05-09 17:30 | 3.30 | 597 | 9850 (1995) | 117 (1964) | 1200 | 168 | 195 | 286 | 368 | 601 | 1200 | 1600 | 2860 | 5710 |
| 2026-05-09 16:30 | 3.30 | 597 | 9850 (1995) | 117 (1964) | 1200 | 168 | 195 | 286 | 368 | 601 | 1200 | 1600 | 2860 | 5710 |
| 2026-05-09 15:30 | 3.31 | 601 | 9850 (1995) | 117 (1964) | 1200 | 168 | 195 | 286 | 368 | 601 | 1200 | 1600 | 2860 | 5710 |
| 2026-05-09 14:30 | 3.32 | 606 | 9850 (1995) | 117 (1964) | 1200 | 168 | 195 | 286 | 368 | 601 | 1200 | 1600 | 2860 | 5710 |
| 2026-05-09 13:30 | 3.31 | 601 | 9850 (1995) | 117 (1964) | 1200 | 168 | 195 | 286 | 368 | 601 | 1200 | 1600 | 2860 | 5710 |
| 2026-05-09 12:30 | 3.34 | 614 | 9850 (1995) | 117 (1964) | 1200 | 168 | 195 | 286 | 368 | 601 | 1200 | 1600 | 2860 | 5710 |
| 2026-05-09 11:30 | 3.35 | 619 | 9850 (1995) | 117 (1964) | 1200 | 168 | 195 | 286 | 368 | 601 | 1200 | 1600 | 2860 | 5710 |
| 2026-05-09 10:30 | 3.35 | 619 | 9850 (1995) | 117 (1964) | 1200 | 168 | 195 | 286 | 368 | 601 | 1200 | 1600 | 2860 | 5710 |
| 2026-05-09 09:30 | 3.36 | 623 | 9850 (1995) | 117 (1964) | 1200 | 168 | 195 | 286 | 368 | 601 | 1200 | 1600 | 2860 | 5710 |
| 2026-05-09 08:30 | 3.36 | 623 | 9850 (1995) | 117 (1964) | 1200 | 168 | 195 | 286 | 368 | 601 | 1200 | 1600 | 2860 | 5710 |
| 2026-05-09 07:30 | 3.36 | 623 | 9850 (1995) | 117 (1964) | 1200 | 168 | 195 | 286 | 368 | 601 | 1200 | 1600 | 2860 | 5710 |
| 2026-05-09 06:30 | 3.35 | 619 | 9850 (1995) | 117 (1964) | 1200 | 168 | 195 | 286 | 368 | 601 | 1200 | 1600 | 2860 | 5710 |
| 2026-05-09 05:30 | 3.35 | 619 | 9850 (1995) | 117 (1964) | 1200 | 168 | 195 | 286 | 368 | 601 | 1200 | 1600 | 2860 | 5710 |
| 2026-05-09 04:30 | 3.36 | 623 | 9850 (1995) | 117 (1964) | 1200 | 168 | 195 | 286 | 368 | 601 | 1200 | 1600 | 2860 | 5710 |
| 2026-05-09 03:30 | 3.36 | 623 | 9850 (1995) | 117 (1964) | 1200 | 168 | 195 | 286 | 368 | 601 | 1200 | 1600 | 2860 | 5710 |
| 2026-05-09 02:30 | 3.36 | 623 | 9850 (1995) | 117 (1964) | 1200 | 168 | 195 | 286 | 368 | 601 | 1200 | 1600 | 2860 | 5710 |
| 2026-05-09 01:30 | 3.36 | 623 | 9850 (1995) | 117 (1964) | 1200 | 168 | 195 | 286 | 368 | 601 | 1200 | 1600 | 2860 | 5710 |
| 2026-05-09 00:30 | 3.37 | 627 | 9850 (1995) | 117 (1964) | 1200 | 168 | 195 | 286 | 368 | 601 | 1200 | 1600 | 2860 | 5710 |
| 2026-05-08 23:30 | 3.38 | 632 | 9850 (1995) | 117 (1964) | 1200 | 168 | 195 | 286 | 368 | 601 | 1200 | 1600 | 2860 | 5710 |
| 2026-05-08 22:30 | 3.39 | 636 | 11300 (1961) | 126 (1964) | 1300 | 158 | 201 | 296 | 365 | 645 | 1340 | 1540 | 2670 | 6250 |
| 2026-05-08 21:30 | 3.40 | 640 | 11300 (1961) | 126 (1964) | 1300 | 158 | 201 | 296 | 365 | 645 | 1340 | 1540 | 2670 | 6250 |
| 2026-05-08 20:30 | 3.37 | 627 | 11300 (1961) | 126 (1964) | 1300 | 158 | 201 | 296 | 365 | 645 | 1340 | 1540 | 2670 | 6250 |
| 2026-05-08 19:30 | 3.38 | 632 | 11300 (1961) | 126 (1964) | 1300 | 158 | 201 | 296 | 365 | 645 | 1340 | 1540 | 2670 | 6250 |
| 2026-05-08 18:30 | 3.39 | 636 | 11300 (1961) | 126 (1964) | 1300 | 158 | 201 | 296 | 365 | 645 | 1340 | 1540 | 2670 | 6250 |
| 2026-05-08 17:30 | 3.40 | 640 | 11300 (1961) | 126 (1964) | 1300 | 158 | 201 | 296 | 365 | 645 | 1340 | 1540 | 2670 | 6250 |
| 2026-05-08 16:30 | 3.40 | 640 | 11300 (1961) | 126 (1964) | 1300 | 158 | 201 | 296 | 365 | 645 | 1340 | 1540 | 2670 | 6250 |
| 2026-05-08 15:30 | 3.41 | 645 | 11300 (1961) | 126 (1964) | 1300 | 158 | 201 | 296 | 365 | 645 | 1340 | 1540 | 2670 | 6250 |
| 2026-05-08 14:30 | 3.42 | 649 | 11300 (1961) | 126 (1964) | 1300 | 158 | 201 | 296 | 365 | 645 | 1340 | 1540 | 2670 | 6250 |
| 2026-05-08 13:30 | 3.43 | 654 | 11300 (1961) | 126 (1964) | 1300 | 158 | 201 | 296 | 365 | 645 | 1340 | 1540 | 2670 | 6250 |
| 2026-05-08 12:30 | 3.44 | 658 | 11300 (1961) | 126 (1964) | 1300 | 158 | 201 | 296 | 365 | 645 | 1340 | 1540 | 2670 | 6250 |
| 2026-05-08 11:30 | 3.42 | 649 | 11300 (1961) | 126 (1964) | 1300 | 158 | 201 | 296 | 365 | 645 | 1340 | 1540 | 2670 | 6250 |
| 2026-05-08 10:30 | 3.45 | 663 | 11300 (1961) | 126 (1964) | 1300 | 158 | 201 | 296 | 365 | 645 | 1340 | 1540 | 2670 | 6250 |
| 2026-05-08 09:30 | 3.46 | 667 | 11300 (1961) | 126 (1964) | 1300 | 158 | 201 | 296 | 365 | 645 | 1340 | 1540 | 2670 | 6250 |
| 2026-05-08 08:30 | 3.47 | 672 | 11300 (1961) | 126 (1964) | 1300 | 158 | 201 | 296 | 365 | 645 | 1340 | 1540 | 2670 | 6250 |
| 2026-05-08 07:30 | 3.47 | 672 | 11300 (1961) | 126 (1964) | 1300 | 158 | 201 | 296 | 365 | 645 | 1340 | 1540 | 2670 | 6250 |
| 2026-05-08 06:30 | 3.48 | 676 | 11300 (1961) | 126 (1964) | 1300 | 158 | 201 | 296 | 365 | 645 | 1340 | 1540 | 2670 | 6250 |
| 2026-05-08 05:30 | 3.48 | 676 | 11300 (1961) | 126 (1964) | 1300 | 158 | 201 | 296 | 365 | 645 | 1340 | 1540 | 2670 | 6250 |
| 2026-05-08 04:30 | 3.49 | 681 | 11300 (1961) | 126 (1964) | 1300 | 158 | 201 | 296 | 365 | 645 | 1340 | 1540 | 2670 | 6250 |
| 2026-05-08 03:30 | 3.49 | 681 | 11300 (1961) | 126 (1964) | 1300 | 158 | 201 | 296 | 365 | 645 | 1340 | 1540 | 2670 | 6250 |
| 2026-05-08 02:30 | 3.50 | 685 | 11300 (1961) | 126 (1964) | 1300 | 158 | 201 | 296 | 365 | 645 | 1340 | 1540 | 2670 | 6250 |
| 2026-05-08 01:30 | 3.51 | 690 | 11300 (1961) | 126 (1964) | 1300 | 158 | 201 | 296 | 365 | 645 | 1340 | 1540 | 2670 | 6250 |
| 2026-05-08 00:30 | 3.51 | 690 | 11300 (1961) | 126 (1964) | 1300 | 158 | 201 | 296 | 365 | 645 | 1340 | 1540 | 2670 | 6250 |
| 2026-05-07 23:30 | 3.52 | 695 | 11300 (1961) | 126 (1964) | 1300 | 158 | 201 | 296 | 365 | 645 | 1340 | 1540 | 2670 | 6250 |
| 2026-05-07 22:30 | 3.52 | 695 | 33400 (1961) | 113 (1964) | 1620 | 160 | 201 | 279 | 334 | 684 | 1520 | 1770 | 3440 | 5180 |
| 2026-05-07 21:30 | 3.53 | 699 | 33400 (1961) | 113 (1964) | 1620 | 160 | 201 | 279 | 334 | 684 | 1520 | 1770 | 3440 | 5180 |
| 2026-05-07 20:30 | 3.54 | 704 | 33400 (1961) | 113 (1964) | 1620 | 160 | 201 | 279 | 334 | 684 | 1520 | 1770 | 3440 | 5180 |
| 2026-05-07 19:30 | 3.54 | 704 | 33400 (1961) | 113 (1964) | 1620 | 160 | 201 | 279 | 334 | 684 | 1520 | 1770 | 3440 | 5180 |
| 2026-05-07 18:30 | 3.55 | 709 | 33400 (1961) | 113 (1964) | 1620 | 160 | 201 | 279 | 334 | 684 | 1520 | 1770 | 3440 | 5180 |
| 2026-05-07 17:30 | 3.56 | 713 | 33400 (1961) | 113 (1964) | 1620 | 160 | 201 | 279 | 334 | 684 | 1520 | 1770 | 3440 | 5180 |
| 2026-05-07 16:30 | 3.57 | 718 | 33400 (1961) | 113 (1964) | 1620 | 160 | 201 | 279 | 334 | 684 | 1520 | 1770 | 3440 | 5180 |
| 2026-05-07 15:30 | 3.57 | 718 | 33400 (1961) | 113 (1964) | 1620 | 160 | 201 | 279 | 334 | 684 | 1520 | 1770 | 3440 | 5180 |
| 2026-05-07 14:30 | 3.59 | 728 | 33400 (1961) | 113 (1964) | 1620 | 160 | 201 | 279 | 334 | 684 | 1520 | 1770 | 3440 | 5180 |
| 2026-05-07 13:30 | 3.61 | 737 | 33400 (1961) | 113 (1964) | 1620 | 160 | 201 | 279 | 334 | 684 | 1520 | 1770 | 3440 | 5180 |
| 2026-05-07 12:30 | 3.60 | 732 | 33400 (1961) | 113 (1964) | 1620 | 160 | 201 | 279 | 334 | 684 | 1520 | 1770 | 3440 | 5180 |
| 2026-05-07 11:30 | 3.63 | 747 | 33400 (1961) | 113 (1964) | 1620 | 160 | 201 | 279 | 334 | 684 | 1520 | 1770 | 3440 | 5180 |
| 2026-05-07 10:30 | 3.64 | 752 | 33400 (1961) | 113 (1964) | 1620 | 160 | 201 | 279 | 334 | 684 | 1520 | 1770 | 3440 | 5180 |
| 2026-05-07 09:30 | 3.66 | 761 | 33400 (1961) | 113 (1964) | 1620 | 160 | 201 | 279 | 334 | 684 | 1520 | 1770 | 3440 | 5180 |
| 2026-05-07 08:30 | 3.67 | 766 | 33400 (1961) | 113 (1964) | 1620 | 160 | 201 | 279 | 334 | 684 | 1520 | 1770 | 3440 | 5180 |
| 2026-05-07 07:30 | 3.68 | 771 | 33400 (1961) | 113 (1964) | 1620 | 160 | 201 | 279 | 334 | 684 | 1520 | 1770 | 3440 | 5180 |
| 2026-05-07 06:30 | 3.69 | 776 | 33400 (1961) | 113 (1964) | 1620 | 160 | 201 | 279 | 334 | 684 | 1520 | 1770 | 3440 | 5180 |
| 2026-05-07 05:30 | 3.70 | 781 | 33400 (1961) | 113 (1964) | 1620 | 160 | 201 | 279 | 334 | 684 | 1520 | 1770 | 3440 | 5180 |
| 2026-05-07 04:30 | 3.72 | 791 | 33400 (1961) | 113 (1964) | 1620 | 160 | 201 | 279 | 334 | 684 | 1520 | 1770 | 3440 | 5180 |
| 2026-05-07 03:30 | 3.73 | 796 | 33400 (1961) | 113 (1964) | 1620 | 160 | 201 | 279 | 334 | 684 | 1520 | 1770 | 3440 | 5180 |
| 2026-05-07 02:30 | 3.74 | 801 | 33400 (1961) | 113 (1964) | 1620 | 160 | 201 | 279 | 334 | 684 | 1520 | 1770 | 3440 | 5180 |
| 2026-05-07 01:30 | 3.75 | 806 | 33400 (1961) | 113 (1964) | 1620 | 160 | 201 | 279 | 334 | 684 | 1520 | 1770 | 3440 | 5180 |
| 2026-05-07 00:30 | 3.77 | 817 | 33400 (1961) | 113 (1964) | 1620 | 160 | 201 | 279 | 334 | 684 | 1520 | 1770 | 3440 | 5180 |
| 2026-05-06 23:30 | 3.78 | 822 | 33400 (1961) | 113 (1964) | 1620 | 160 | 201 | 279 | 334 | 684 | 1520 | 1770 | 3440 | 5180 |
| 2026-05-06 22:30 | 3.79 | 827 | 14600 (2022) | 121 (1964) | 1490 | 158 | 215 | 290 | 330 | 713 | 1270 | 1770 | 3250 | 7500 |
| 2026-05-06 21:30 | 3.81 | 837 | 14600 (2022) | 121 (1964) | 1490 | 158 | 215 | 290 | 330 | 713 | 1270 | 1770 | 3250 | 7500 |
| 2026-05-06 20:30 | 3.83 | 848 | 14600 (2022) | 121 (1964) | 1490 | 158 | 215 | 290 | 330 | 713 | 1270 | 1770 | 3250 | 7500 |
| 2026-05-06 19:30 | 3.85 | 858 | 14600 (2022) | 121 (1964) | 1490 | 158 | 215 | 290 | 330 | 713 | 1270 | 1770 | 3250 | 7500 |
| 2026-05-06 18:30 | 3.87 | 869 | 14600 (2022) | 121 (1964) | 1490 | 158 | 215 | 290 | 330 | 713 | 1270 | 1770 | 3250 | 7500 |
| 2026-05-06 17:30 | 3.89 | 879 | 14600 (2022) | 121 (1964) | 1490 | 158 | 215 | 290 | 330 | 713 | 1270 | 1770 | 3250 | 7500 |
| 2026-05-06 16:30 | 3.90 | 885 | 14600 (2022) | 121 (1964) | 1490 | 158 | 215 | 290 | 330 | 713 | 1270 | 1770 | 3250 | 7500 |
| 2026-05-06 15:30 | 3.91 | 890 | 14600 (2022) | 121 (1964) | 1490 | 158 | 215 | 290 | 330 | 713 | 1270 | 1770 | 3250 | 7500 |
| 2026-05-06 14:30 | 3.98 | 928 | 14600 (2022) | 121 (1964) | 1490 | 158 | 215 | 290 | 330 | 713 | 1270 | 1770 | 3250 | 7500 |
| 2026-05-06 13:30 | 3.59 | 728 | 14600 (2022) | 121 (1964) | 1490 | 158 | 215 | 290 | 330 | 713 | 1270 | 1770 | 3250 | 7500 |
| 2026-05-06 12:30 | 4.03 | 954 | 14600 (2022) | 121 (1964) | 1490 | 158 | 215 | 290 | 330 | 713 | 1270 | 1770 | 3250 | 7500 |
| 2026-05-06 11:30 | 4.11 | 991 | 14600 (2022) | 121 (1964) | 1490 | 158 | 215 | 290 | 330 | 713 | 1270 | 1770 | 3250 | 7500 |
| 2026-05-06 10:30 | 4.21 | 1040 | 14600 (2022) | 121 (1964) | 1490 | 158 | 215 | 290 | 330 | 713 | 1270 | 1770 | 3250 | 7500 |
| 2026-05-06 09:30 | 4.39 | 1130 | 14600 (2022) | 121 (1964) | 1490 | 158 | 215 | 290 | 330 | 713 | 1270 | 1770 | 3250 | 7500 |
| 2026-05-06 08:30 | 4.48 | 1180 | 14600 (2022) | 121 (1964) | 1490 | 158 | 215 | 290 | 330 | 713 | 1270 | 1770 | 3250 | 7500 |
| 2026-05-06 07:30 | 4.26 | 1060 | 14600 (2022) | 121 (1964) | 1490 | 158 | 215 | 290 | 330 | 713 | 1270 | 1770 | 3250 | 7500 |
| 2026-05-06 06:30 | 4.31 | 1090 | 14600 (2022) | 121 (1964) | 1490 | 158 | 215 | 290 | 330 | 713 | 1270 | 1770 | 3250 | 7500 |
| 2026-05-06 05:30 | 4.38 | 1130 | 14600 (2022) | 121 (1964) | 1490 | 158 | 215 | 290 | 330 | 713 | 1270 | 1770 | 3250 | 7500 |
| 2026-05-06 04:30 | 4.45 | 1160 | 14600 (2022) | 121 (1964) | 1490 | 158 | 215 | 290 | 330 | 713 | 1270 | 1770 | 3250 | 7500 |
| 2026-05-06 03:30 | 4.53 | 1210 | 14600 (2022) | 121 (1964) | 1490 | 158 | 215 | 290 | 330 | 713 | 1270 | 1770 | 3250 | 7500 |
| 2026-05-06 02:30 | 4.62 | 1250 | 14600 (2022) | 121 (1964) | 1490 | 158 | 215 | 290 | 330 | 713 | 1270 | 1770 | 3250 | 7500 |
| 2026-05-06 01:30 | 4.71 | 1300 | 14600 (2022) | 121 (1964) | 1490 | 158 | 215 | 290 | 330 | 713 | 1270 | 1770 | 3250 | 7500 |
| 2026-05-06 00:30 | 4.83 | 1370 | 14600 (2022) | 121 (1964) | 1490 | 158 | 215 | 290 | 330 | 713 | 1270 | 1770 | 3250 | 7500 |
| 2026-05-05 23:30 | 4.95 | 1440 | 14600 (2022) | 121 (1964) | 1490 | 158 | 215 | 290 | 330 | 713 | 1270 | 1770 | 3250 | 7500 |
| 2026-05-05 22:30 | 5.08 | 1520 | 52300 (2022) | 128 (1981) | 2090 | 167 | 210 | 284 | 337 | 690 | 1550 | 1770 | 3190 | 6980 |
| 2026-05-05 21:30 | 5.19 | 1590 | 52300 (2022) | 128 (1981) | 2090 | 167 | 210 | 284 | 337 | 690 | 1550 | 1770 | 3190 | 6980 |
| 2026-05-05 20:30 | 5.27 | 1650 | 52300 (2022) | 128 (1981) | 2090 | 167 | 210 | 284 | 337 | 690 | 1550 | 1770 | 3190 | 6980 |
| 2026-05-05 19:30 | 5.24 | 1630 | 52300 (2022) | 128 (1981) | 2090 | 167 | 210 | 284 | 337 | 690 | 1550 | 1770 | 3190 | 6980 |
| 2026-05-05 18:30 | 5.03 | 1490 | 52300 (2022) | 128 (1981) | 2090 | 167 | 210 | 284 | 337 | 690 | 1550 | 1770 | 3190 | 6980 |
| 2026-05-05 17:30 | 4.55 | 1220 | 52300 (2022) | 128 (1981) | 2090 | 167 | 210 | 284 | 337 | 690 | 1550 | 1770 | 3190 | 6980 |
| 2026-05-05 16:30 | 3.97 | 923 | 52300 (2022) | 128 (1981) | 2090 | 167 | 210 | 284 | 337 | 690 | 1550 | 1770 | 3190 | 6980 |
| 2026-05-05 15:30 | 3.70 | 781 | 52300 (2022) | 128 (1981) | 2090 | 167 | 210 | 284 | 337 | 690 | 1550 | 1770 | 3190 | 6980 |
| 2026-05-05 14:30 | 3.67 | 766 | 52300 (2022) | 128 (1981) | 2090 | 167 | 210 | 284 | 337 | 690 | 1550 | 1770 | 3190 | 6980 |
| 2026-05-05 13:30 | 3.68 | 771 | 52300 (2022) | 128 (1981) | 2090 | 167 | 210 | 284 | 337 | 690 | 1550 | 1770 | 3190 | 6980 |
| 2026-05-05 12:30 | 3.54 | 704 | 52300 (2022) | 128 (1981) | 2090 | 167 | 210 | 284 | 337 | 690 | 1550 | 1770 | 3190 | 6980 |
| 2026-05-05 11:30 | 3.19 | 552 | 52300 (2022) | 128 (1981) | 2090 | 167 | 210 | 284 | 337 | 690 | 1550 | 1770 | 3190 | 6980 |
| 2026-05-05 10:30 | 4.06 | 968 | 52300 (2022) | 128 (1981) | 2090 | 167 | 210 | 284 | 337 | 690 | 1550 | 1770 | 3190 | 6980 |
| 2026-05-05 09:30 | 3.21 | 560 | 52300 (2022) | 128 (1981) | 2090 | 167 | 210 | 284 | 337 | 690 | 1550 | 1770 | 3190 | 6980 |
| 2026-05-05 08:30 | 3.57 | 718 | 52300 (2022) | 128 (1981) | 2090 | 167 | 210 | 284 | 337 | 690 | 1550 | 1770 | 3190 | 6980 |
| 2026-05-05 07:30 | 3.57 | 718 | 52300 (2022) | 128 (1981) | 2090 | 167 | 210 | 284 | 337 | 690 | 1550 | 1770 | 3190 | 6980 |
| 2026-05-05 06:30 | 3.56 | 713 | 52300 (2022) | 128 (1981) | 2090 | 167 | 210 | 284 | 337 | 690 | 1550 | 1770 | 3190 | 6980 |
| 2026-05-05 05:30 | 3.56 | 713 | 52300 (2022) | 128 (1981) | 2090 | 167 | 210 | 284 | 337 | 690 | 1550 | 1770 | 3190 | 6980 |
| 2026-05-05 04:30 | 3.57 | 718 | 52300 (2022) | 128 (1981) | 2090 | 167 | 210 | 284 | 337 | 690 | 1550 | 1770 | 3190 | 6980 |
| 2026-05-05 03:30 | 3.58 | 723 | 52300 (2022) | 128 (1981) | 2090 | 167 | 210 | 284 | 337 | 690 | 1550 | 1770 | 3190 | 6980 |
| 2026-05-05 02:30 | 3.58 | 723 | 52300 (2022) | 128 (1981) | 2090 | 167 | 210 | 284 | 337 | 690 | 1550 | 1770 | 3190 | 6980 |
| 2026-05-05 01:30 | 3.57 | 718 | 52300 (2022) | 128 (1981) | 2090 | 167 | 210 | 284 | 337 | 690 | 1550 | 1770 | 3190 | 6980 |
| 2026-05-05 00:30 | 3.57 | 718 | 52300 (2022) | 128 (1981) | 2090 | 167 | 210 | 284 | 337 | 690 | 1550 | 1770 | 3190 | 6980 |
| 2026-05-04 23:30 | 3.57 | 718 | 52300 (2022) | 128 (1981) | 2090 | 167 | 210 | 284 | 337 | 690 | 1550 | 1770 | 3190 | 6980 |
| 2026-05-04 22:30 | 3.58 | 723 | 13400 (1990) | 134 (1964) | 1580 | 175 | 226 | 295 | 347 | 695 | 1640 | 2050 | 3900 | 6780 |
| 2026-05-04 21:30 | 3.59 | 728 | 13400 (1990) | 134 (1964) | 1580 | 175 | 226 | 295 | 347 | 695 | 1640 | 2050 | 3900 | 6780 |
| 2026-05-04 20:30 | 3.60 | 732 | 13400 (1990) | 134 (1964) | 1580 | 175 | 226 | 295 | 347 | 695 | 1640 | 2050 | 3900 | 6780 |
| 2026-05-04 19:30 | 3.60 | 732 | 13400 (1990) | 134 (1964) | 1580 | 175 | 226 | 295 | 347 | 695 | 1640 | 2050 | 3900 | 6780 |
| 2026-05-04 18:30 | 3.61 | 737 | 13400 (1990) | 134 (1964) | 1580 | 175 | 226 | 295 | 347 | 695 | 1640 | 2050 | 3900 | 6780 |
| 2026-05-04 17:30 | 3.68 | 771 | 13400 (1990) | 134 (1964) | 1580 | 175 | 226 | 295 | 347 | 695 | 1640 | 2050 | 3900 | 6780 |
| 2026-05-04 16:30 | 3.60 | 732 | 13400 (1990) | 134 (1964) | 1580 | 175 | 226 | 295 | 347 | 695 | 1640 | 2050 | 3900 | 6780 |
| 2026-05-04 15:30 | 3.49 | 681 | 13400 (1990) | 134 (1964) | 1580 | 175 | 226 | 295 | 347 | 695 | 1640 | 2050 | 3900 | 6780 |
| 2026-05-04 14:30 | 3.62 | 742 | 13400 (1990) | 134 (1964) | 1580 | 175 | 226 | 295 | 347 | 695 | 1640 | 2050 | 3900 | 6780 |
| 2026-05-04 13:30 | 3.66 | 761 | 13400 (1990) | 134 (1964) | 1580 | 175 | 226 | 295 | 347 | 695 | 1640 | 2050 | 3900 | 6780 |
| 2026-05-04 12:30 | 3.68 | 771 | 13400 (1990) | 134 (1964) | 1580 | 175 | 226 | 295 | 347 | 695 | 1640 | 2050 | 3900 | 6780 |
| 2026-05-04 11:30 | 3.74 | 801 | 13400 (1990) | 134 (1964) | 1580 | 175 | 226 | 295 | 347 | 695 | 1640 | 2050 | 3900 | 6780 |
| 2026-05-04 10:30 | 3.80 | 832 | 13400 (1990) | 134 (1964) | 1580 | 175 | 226 | 295 | 347 | 695 | 1640 | 2050 | 3900 | 6780 |
| 2026-05-04 09:30 | 3.44 | 658 | 13400 (1990) | 134 (1964) | 1580 | 175 | 226 | 295 | 347 | 695 | 1640 | 2050 | 3900 | 6780 |
| 2026-05-04 08:30 | 3.69 | 776 | 13400 (1990) | 134 (1964) | 1580 | 175 | 226 | 295 | 347 | 695 | 1640 | 2050 | 3900 | 6780 |
| 2026-05-04 07:30 | 3.70 | 781 | 13400 (1990) | 134 (1964) | 1580 | 175 | 226 | 295 | 347 | 695 | 1640 | 2050 | 3900 | 6780 |
| 2026-05-04 06:30 | 3.70 | 781 | 13400 (1990) | 134 (1964) | 1580 | 175 | 226 | 295 | 347 | 695 | 1640 | 2050 | 3900 | 6780 |
| 2026-05-04 05:30 | 3.71 | 786 | 13400 (1990) | 134 (1964) | 1580 | 175 | 226 | 295 | 347 | 695 | 1640 | 2050 | 3900 | 6780 |
| 2026-05-04 04:30 | 3.71 | 786 | 13400 (1990) | 134 (1964) | 1580 | 175 | 226 | 295 | 347 | 695 | 1640 | 2050 | 3900 | 6780 |
| 2026-05-04 03:30 | 3.71 | 786 | 13400 (1990) | 134 (1964) | 1580 | 175 | 226 | 295 | 347 | 695 | 1640 | 2050 | 3900 | 6780 |
| 2026-05-04 02:30 | 3.72 | 791 | 13400 (1990) | 134 (1964) | 1580 | 175 | 226 | 295 | 347 | 695 | 1640 | 2050 | 3900 | 6780 |
| 2026-05-04 01:30 | 3.72 | 791 | 13400 (1990) | 134 (1964) | 1580 | 175 | 226 | 295 | 347 | 695 | 1640 | 2050 | 3900 | 6780 |
| 2026-05-04 00:30 | 3.72 | 791 | 13400 (1990) | 134 (1964) | 1580 | 175 | 226 | 295 | 347 | 695 | 1640 | 2050 | 3900 | 6780 |
| 2026-05-03 23:30 | 3.73 | 796 | 13400 (1990) | 134 (1964) | 1580 | 175 | 226 | 295 | 347 | 695 | 1640 | 2050 | 3900 | 6780 |
| 2026-05-03 22:30 | 3.74 | 801 | 31800 (1990) | 152 (1981) | 1750 | 176 | 226 | 306 | 367 | 739 | 1570 | 2360 | 3620 | 6160 |
| 2026-05-03 21:30 | 3.75 | 806 | 31800 (1990) | 152 (1981) | 1750 | 176 | 226 | 306 | 367 | 739 | 1570 | 2360 | 3620 | 6160 |
| 2026-05-03 20:30 | 3.76 | 811 | 31800 (1990) | 152 (1981) | 1750 | 176 | 226 | 306 | 367 | 739 | 1570 | 2360 | 3620 | 6160 |
| 2026-05-03 19:30 | 3.78 | 822 | 31800 (1990) | 152 (1981) | 1750 | 176 | 226 | 306 | 367 | 739 | 1570 | 2360 | 3620 | 6160 |
| 2026-05-03 18:30 | 3.79 | 827 | 31800 (1990) | 152 (1981) | 1750 | 176 | 226 | 306 | 367 | 739 | 1570 | 2360 | 3620 | 6160 |
| 2026-05-03 17:30 | 3.80 | 832 | 31800 (1990) | 152 (1981) | 1750 | 176 | 226 | 306 | 367 | 739 | 1570 | 2360 | 3620 | 6160 |
| 2026-05-03 16:30 | 3.81 | 837 | 31800 (1990) | 152 (1981) | 1750 | 176 | 226 | 306 | 367 | 739 | 1570 | 2360 | 3620 | 6160 |
| 2026-05-03 15:30 | 3.82 | 842 | 31800 (1990) | 152 (1981) | 1750 | 176 | 226 | 306 | 367 | 739 | 1570 | 2360 | 3620 | 6160 |
| 2026-05-03 14:30 | 3.81 | 837 | 31800 (1990) | 152 (1981) | 1750 | 176 | 226 | 306 | 367 | 739 | 1570 | 2360 | 3620 | 6160 |
| 2026-05-03 13:30 | 3.85 | 858 | 31800 (1990) | 152 (1981) | 1750 | 176 | 226 | 306 | 367 | 739 | 1570 | 2360 | 3620 | 6160 |
| 2026-05-03 12:30 | 3.85 | 858 | 31800 (1990) | 152 (1981) | 1750 | 176 | 226 | 306 | 367 | 739 | 1570 | 2360 | 3620 | 6160 |
| 2026-05-03 11:30 | 3.87 | 869 | 31800 (1990) | 152 (1981) | 1750 | 176 | 226 | 306 | 367 | 739 | 1570 | 2360 | 3620 | 6160 |
| 2026-05-03 10:30 | 3.88 | 874 | 31800 (1990) | 152 (1981) | 1750 | 176 | 226 | 306 | 367 | 739 | 1570 | 2360 | 3620 | 6160 |
| 2026-05-03 09:30 | 3.89 | 879 | 31800 (1990) | 152 (1981) | 1750 | 176 | 226 | 306 | 367 | 739 | 1570 | 2360 | 3620 | 6160 |
| 2026-05-03 08:30 | 3.90 | 885 | 31800 (1990) | 152 (1981) | 1750 | 176 | 226 | 306 | 367 | 739 | 1570 | 2360 | 3620 | 6160 |
| 2026-05-03 07:30 | 3.91 | 890 | 31800 (1990) | 152 (1981) | 1750 | 176 | 226 | 306 | 367 | 739 | 1570 | 2360 | 3620 | 6160 |
| 2026-05-03 06:30 | 3.91 | 890 | 31800 (1990) | 152 (1981) | 1750 | 176 | 226 | 306 | 367 | 739 | 1570 | 2360 | 3620 | 6160 |
| 2026-05-03 05:30 | 3.91 | 890 | 31800 (1990) | 152 (1981) | 1750 | 176 | 226 | 306 | 367 | 739 | 1570 | 2360 | 3620 | 6160 |
| 2026-05-03 04:30 | 3.92 | 896 | 31800 (1990) | 152 (1981) | 1750 | 176 | 226 | 306 | 367 | 739 | 1570 | 2360 | 3620 | 6160 |
| 2026-05-03 03:30 | 3.93 | 901 | 31800 (1990) | 152 (1981) | 1750 | 176 | 226 | 306 | 367 | 739 | 1570 | 2360 | 3620 | 6160 |
| 2026-05-03 02:30 | 3.93 | 901 | 31800 (1990) | 152 (1981) | 1750 | 176 | 226 | 306 | 367 | 739 | 1570 | 2360 | 3620 | 6160 |
| 2026-05-03 01:30 | 3.94 | 907 | 31800 (1990) | 152 (1981) | 1750 | 176 | 226 | 306 | 367 | 739 | 1570 | 2360 | 3620 | 6160 |
| 2026-05-03 00:30 | 3.94 | 907 | 31800 (1990) | 152 (1981) | 1750 | 176 | 226 | 306 | 367 | 739 | 1570 | 2360 | 3620 | 6160 |
| 2026-05-02 23:30 | 3.96 | 917 | 31800 (1990) | 152 (1981) | 1750 | 176 | 226 | 306 | 367 | 739 | 1570 | 2360 | 3620 | 6160 |
| 2026-05-02 22:30 | 3.97 | 923 | 5970 (2011) | 152 (1964) | 1260 | 186 | 241 | 317 | 391 | 753 | 1540 | 1820 | 3740 | 4760 |
| 2026-05-02 21:30 | 3.98 | 928 | 5970 (2011) | 152 (1964) | 1260 | 186 | 241 | 317 | 391 | 753 | 1540 | 1820 | 3740 | 4760 |
| 2026-05-02 20:30 | 3.99 | 934 | 5970 (2011) | 152 (1964) | 1260 | 186 | 241 | 317 | 391 | 753 | 1540 | 1820 | 3740 | 4760 |
| 2026-05-02 19:30 | 4.00 | 940 | 5970 (2011) | 152 (1964) | 1260 | 186 | 241 | 317 | 391 | 753 | 1540 | 1820 | 3740 | 4760 |
| 2026-05-02 18:30 | 4.02 | 949 | 5970 (2011) | 152 (1964) | 1260 | 186 | 241 | 317 | 391 | 753 | 1540 | 1820 | 3740 | 4760 |
| 2026-05-02 17:30 | 4.03 | 954 | 5970 (2011) | 152 (1964) | 1260 | 186 | 241 | 317 | 391 | 753 | 1540 | 1820 | 3740 | 4760 |
| 2026-05-02 16:30 | 4.04 | 958 | 5970 (2011) | 152 (1964) | 1260 | 186 | 241 | 317 | 391 | 753 | 1540 | 1820 | 3740 | 4760 |
| 2026-05-02 15:30 | 4.04 | 958 | 5970 (2011) | 152 (1964) | 1260 | 186 | 241 | 317 | 391 | 753 | 1540 | 1820 | 3740 | 4760 |
| 2026-05-02 14:30 | 4.08 | 977 | 5970 (2011) | 152 (1964) | 1260 | 186 | 241 | 317 | 391 | 753 | 1540 | 1820 | 3740 | 4760 |
| 2026-05-02 13:30 | 4.08 | 977 | 5970 (2011) | 152 (1964) | 1260 | 186 | 241 | 317 | 391 | 753 | 1540 | 1820 | 3740 | 4760 |
| 2026-05-02 12:30 | 4.09 | 982 | 5970 (2011) | 152 (1964) | 1260 | 186 | 241 | 317 | 391 | 753 | 1540 | 1820 | 3740 | 4760 |
| 2026-05-02 11:30 | 4.13 | 1000 | 5970 (2011) | 152 (1964) | 1260 | 186 | 241 | 317 | 391 | 753 | 1540 | 1820 | 3740 | 4760 |
| 2026-05-02 10:30 | 4.17 | 1020 | 5970 (2011) | 152 (1964) | 1260 | 186 | 241 | 317 | 391 | 753 | 1540 | 1820 | 3740 | 4760 |
| 2026-05-02 09:30 | 4.14 | 1010 | 5970 (2011) | 152 (1964) | 1260 | 186 | 241 | 317 | 391 | 753 | 1540 | 1820 | 3740 | 4760 |
| 2026-05-02 08:30 | 4.18 | 1030 | 5970 (2011) | 152 (1964) | 1260 | 186 | 241 | 317 | 391 | 753 | 1540 | 1820 | 3740 | 4760 |
| 2026-05-02 07:30 | 4.19 | 1030 | 5970 (2011) | 152 (1964) | 1260 | 186 | 241 | 317 | 391 | 753 | 1540 | 1820 | 3740 | 4760 |
| 2026-05-02 06:30 | 4.21 | 1040 | 5970 (2011) | 152 (1964) | 1260 | 186 | 241 | 317 | 391 | 753 | 1540 | 1820 | 3740 | 4760 |
| 2026-05-02 05:30 | 4.22 | 1040 | 5970 (2011) | 152 (1964) | 1260 | 186 | 241 | 317 | 391 | 753 | 1540 | 1820 | 3740 | 4760 |
| 2026-05-02 04:30 | 4.23 | 1050 | 5970 (2011) | 152 (1964) | 1260 | 186 | 241 | 317 | 391 | 753 | 1540 | 1820 | 3740 | 4760 |
| 2026-05-02 03:30 | 4.24 | 1050 | 5970 (2011) | 152 (1964) | 1260 | 186 | 241 | 317 | 391 | 753 | 1540 | 1820 | 3740 | 4760 |
| 2026-05-02 02:30 | 4.25 | 1060 | 5970 (2011) | 152 (1964) | 1260 | 186 | 241 | 317 | 391 | 753 | 1540 | 1820 | 3740 | 4760 |
| 2026-05-02 01:30 | 4.26 | 1060 | 5970 (2011) | 152 (1964) | 1260 | 186 | 241 | 317 | 391 | 753 | 1540 | 1820 | 3740 | 4760 |
| 2026-05-02 00:30 | 4.27 | 1070 | 5970 (2011) | 152 (1964) | 1260 | 186 | 241 | 317 | 391 | 753 | 1540 | 1820 | 3740 | 4760 |
| 2026-05-01 23:30 | 4.28 | 1070 | 5970 (2011) | 152 (1964) | 1260 | 186 | 241 | 317 | 391 | 753 | 1540 | 1820 | 3740 | 4760 |
| 2026-05-01 22:30 | 4.29 | 1080 | 14100 (1970) | 160 (1964) | 1490 | 194 | 216 | 312 | 364 | 690 | 1510 | 1680 | 3490 | 6720 |
| 2026-05-01 21:30 | 4.31 | 1090 | 14100 (1970) | 160 (1964) | 1490 | 194 | 216 | 312 | 364 | 690 | 1510 | 1680 | 3490 | 6720 |
| 2026-05-01 20:30 | 4.33 | 1100 | 14100 (1970) | 160 (1964) | 1490 | 194 | 216 | 312 | 364 | 690 | 1510 | 1680 | 3490 | 6720 |
| 2026-05-01 19:30 | 4.34 | 1110 | 14100 (1970) | 160 (1964) | 1490 | 194 | 216 | 312 | 364 | 690 | 1510 | 1680 | 3490 | 6720 |
| 2026-05-01 18:30 | 4.35 | 1110 | 14100 (1970) | 160 (1964) | 1490 | 194 | 216 | 312 | 364 | 690 | 1510 | 1680 | 3490 | 6720 |
| 2026-05-01 17:30 | 4.39 | 1130 | 14100 (1970) | 160 (1964) | 1490 | 194 | 216 | 312 | 364 | 690 | 1510 | 1680 | 3490 | 6720 |
| 2026-05-01 16:30 | 4.41 | 1140 | 14100 (1970) | 160 (1964) | 1490 | 194 | 216 | 312 | 364 | 690 | 1510 | 1680 | 3490 | 6720 |
| 2026-05-01 15:30 | 4.42 | 1150 | 14100 (1970) | 160 (1964) | 1490 | 194 | 216 | 312 | 364 | 690 | 1510 | 1680 | 3490 | 6720 |
| 2026-05-01 14:30 | 4.46 | 1170 | 14100 (1970) | 160 (1964) | 1490 | 194 | 216 | 312 | 364 | 690 | 1510 | 1680 | 3490 | 6720 |
| 2026-05-01 13:30 | 4.47 | 1170 | 14100 (1970) | 160 (1964) | 1490 | 194 | 216 | 312 | 364 | 690 | 1510 | 1680 | 3490 | 6720 |
| 2026-05-01 12:30 | 4.45 | 1160 | 14100 (1970) | 160 (1964) | 1490 | 194 | 216 | 312 | 364 | 690 | 1510 | 1680 | 3490 | 6720 |
| 2026-05-01 11:30 | 4.51 | 1190 | 14100 (1970) | 160 (1964) | 1490 | 194 | 216 | 312 | 364 | 690 | 1510 | 1680 | 3490 | 6720 |
| 2026-05-01 10:30 | 4.53 | 1210 | 14100 (1970) | 160 (1964) | 1490 | 194 | 216 | 312 | 364 | 690 | 1510 | 1680 | 3490 | 6720 |
| 2026-05-01 09:30 | 4.47 | 1170 | 14100 (1970) | 160 (1964) | 1490 | 194 | 216 | 312 | 364 | 690 | 1510 | 1680 | 3490 | 6720 |
| 2026-05-01 08:30 | 4.58 | 1230 | 14100 (1970) | 160 (1964) | 1490 | 194 | 216 | 312 | 364 | 690 | 1510 | 1680 | 3490 | 6720 |
| 2026-05-01 07:30 | 4.60 | 1240 | 14100 (1970) | 160 (1964) | 1490 | 194 | 216 | 312 | 364 | 690 | 1510 | 1680 | 3490 | 6720 |
| 2026-05-01 06:30 | 4.62 | 1250 | 14100 (1970) | 160 (1964) | 1490 | 194 | 216 | 312 | 364 | 690 | 1510 | 1680 | 3490 | 6720 |
| 2026-05-01 05:30 | 4.64 | 1270 | 14100 (1970) | 160 (1964) | 1490 | 194 | 216 | 312 | 364 | 690 | 1510 | 1680 | 3490 | 6720 |
| 2026-05-01 04:30 | 4.66 | 1280 | 14100 (1970) | 160 (1964) | 1490 | 194 | 216 | 312 | 364 | 690 | 1510 | 1680 | 3490 | 6720 |
| 2026-05-01 03:30 | 4.69 | 1290 | 14100 (1970) | 160 (1964) | 1490 | 194 | 216 | 312 | 364 | 690 | 1510 | 1680 | 3490 | 6720 |
| 2026-05-01 02:30 | 4.71 | 1300 | 14100 (1970) | 160 (1964) | 1490 | 194 | 216 | 312 | 364 | 690 | 1510 | 1680 | 3490 | 6720 |
| 2026-05-01 01:30 | 4.73 | 1320 | 14100 (1970) | 160 (1964) | 1490 | 194 | 216 | 312 | 364 | 690 | 1510 | 1680 | 3490 | 6720 |
| 2026-05-01 00:30 | 4.75 | 1330 | 14100 (1970) | 160 (1964) | 1490 | 194 | 216 | 312 | 364 | 690 | 1510 | 1680 | 3490 | 6720 |
| 2026-04-30 23:30 | 4.78 | 1340 | 14100 (1970) | 160 (1964) | 1490 | 194 | 216 | 312 | 364 | 690 | 1510 | 1680 | 3490 | 6720 |
| 2026-04-30 22:30 | 4.84 | 1380 | 67300 (2017) | 167 (1964) | 1990 | 196 | 214 | 312 | 344 | 660 | 1530 | 1680 | 2310 | 3340 |
| 2026-04-30 21:30 | 4.92 | 1430 | 67300 (2017) | 167 (1964) | 1990 | 196 | 214 | 312 | 344 | 660 | 1530 | 1680 | 2310 | 3340 |
| 2026-04-30 20:30 | 4.83 | 1370 | 67300 (2017) | 167 (1964) | 1990 | 196 | 214 | 312 | 344 | 660 | 1530 | 1680 | 2310 | 3340 |
| 2026-04-30 19:30 | 4.86 | 1390 | 67300 (2017) | 167 (1964) | 1990 | 196 | 214 | 312 | 344 | 660 | 1530 | 1680 | 2310 | 3340 |
| 2026-04-30 18:30 | 4.88 | 1400 | 67300 (2017) | 167 (1964) | 1990 | 196 | 214 | 312 | 344 | 660 | 1530 | 1680 | 2310 | 3340 |
| 2026-04-30 17:30 | 4.90 | 1410 | 67300 (2017) | 167 (1964) | 1990 | 196 | 214 | 312 | 344 | 660 | 1530 | 1680 | 2310 | 3340 |
| 2026-04-30 16:30 | 4.95 | 1440 | 67300 (2017) | 167 (1964) | 1990 | 196 | 214 | 312 | 344 | 660 | 1530 | 1680 | 2310 | 3340 |
| 2026-04-30 15:30 | 4.98 | 1460 | 67300 (2017) | 167 (1964) | 1990 | 196 | 214 | 312 | 344 | 660 | 1530 | 1680 | 2310 | 3340 |
| 2026-04-30 14:30 | 5.02 | 1490 | 67300 (2017) | 167 (1964) | 1990 | 196 | 214 | 312 | 344 | 660 | 1530 | 1680 | 2310 | 3340 |
| 2026-04-30 13:30 | 5.06 | 1510 | 67300 (2017) | 167 (1964) | 1990 | 196 | 214 | 312 | 344 | 660 | 1530 | 1680 | 2310 | 3340 |
| 2026-04-30 12:30 | 5.09 | 1530 | 67300 (2017) | 167 (1964) | 1990 | 196 | 214 | 312 | 344 | 660 | 1530 | 1680 | 2310 | 3340 |
| 2026-04-30 11:30 | 5.12 | 1550 | 67300 (2017) | 167 (1964) | 1990 | 196 | 214 | 312 | 344 | 660 | 1530 | 1680 | 2310 | 3340 |
| 2026-04-30 10:30 | 5.13 | 1560 | 67300 (2017) | 167 (1964) | 1990 | 196 | 214 | 312 | 344 | 660 | 1530 | 1680 | 2310 | 3340 |
| 2026-04-30 09:30 | 5.01 | 1480 | 67300 (2017) | 167 (1964) | 1990 | 196 | 214 | 312 | 344 | 660 | 1530 | 1680 | 2310 | 3340 |
| 2026-04-30 08:30 | 5.15 | 1570 | 67300 (2017) | 167 (1964) | 1990 | 196 | 214 | 312 | 344 | 660 | 1530 | 1680 | 2310 | 3340 |
| 2026-04-30 07:30 | 5.33 | 1680 | 67300 (2017) | 167 (1964) | 1990 | 196 | 214 | 312 | 344 | 660 | 1530 | 1680 | 2310 | 3340 |
| 2026-04-30 06:30 | 5.38 | 1720 | 67300 (2017) | 167 (1964) | 1990 | 196 | 214 | 312 | 344 | 660 | 1530 | 1680 | 2310 | 3340 |
| 2026-04-30 05:30 | 5.43 | 1750 | 67300 (2017) | 167 (1964) | 1990 | 196 | 214 | 312 | 344 | 660 | 1530 | 1680 | 2310 | 3340 |
| 2026-04-30 04:30 | 5.48 | 1790 | 67300 (2017) | 167 (1964) | 1990 | 196 | 214 | 312 | 344 | 660 | 1530 | 1680 | 2310 | 3340 |
| 2026-04-30 03:30 | 5.54 | 1830 | 67300 (2017) | 167 (1964) | 1990 | 196 | 214 | 312 | 344 | 660 | 1530 | 1680 | 2310 | 3340 |
| 2026-04-30 02:30 | 5.60 | 1870 | 67300 (2017) | 167 (1964) | 1990 | 196 | 214 | 312 | 344 | 660 | 1530 | 1680 | 2310 | 3340 |
| 2026-04-30 01:30 | 5.67 | 1920 | 67300 (2017) | 167 (1964) | 1990 | 196 | 214 | 312 | 344 | 660 | 1530 | 1680 | 2310 | 3340 |
| 2026-04-30 00:30 | 5.73 | 1960 | 67300 (2017) | 167 (1964) | 1990 | 196 | 214 | 312 | 344 | 660 | 1530 | 1680 | 2310 | 3340 |
| 2026-04-29 23:30 | 5.80 | 2010 | 67300 (2017) | 167 (1964) | 1990 | 196 | 214 | 312 | 344 | 660 | 1530 | 1680 | 2310 | 3340 |
| 2026-04-29 22:30 | 5.87 | 2060 | 23200 (2021) | 173 (1964) | 1510 | 196 | 213 | 347 | 394 | 618 | 1280 | 1370 | 2150 | 3640 |
| 2026-04-29 21:30 | 5.95 | 2120 | 23200 (2021) | 173 (1964) | 1510 | 196 | 213 | 347 | 394 | 618 | 1280 | 1370 | 2150 | 3640 |
| 2026-04-29 20:30 | 6.04 | 2200 | 23200 (2021) | 173 (1964) | 1510 | 196 | 213 | 347 | 394 | 618 | 1280 | 1370 | 2150 | 3640 |
| 2026-04-29 19:30 | 6.14 | 2290 | 23200 (2021) | 173 (1964) | 1510 | 196 | 213 | 347 | 394 | 618 | 1280 | 1370 | 2150 | 3640 |
| 2026-04-29 18:30 | 6.24 | 2380 | 23200 (2021) | 173 (1964) | 1510 | 196 | 213 | 347 | 394 | 618 | 1280 | 1370 | 2150 | 3640 |
| 2026-04-29 17:30 | 6.36 | 2500 | 23200 (2021) | 173 (1964) | 1510 | 196 | 213 | 347 | 394 | 618 | 1280 | 1370 | 2150 | 3640 |
| 2026-04-29 16:30 | 6.51 | 2650 | 23200 (2021) | 173 (1964) | 1510 | 196 | 213 | 347 | 394 | 618 | 1280 | 1370 | 2150 | 3640 |
| 2026-04-29 15:30 | 6.67 | 2810 | 23200 (2021) | 173 (1964) | 1510 | 196 | 213 | 347 | 394 | 618 | 1280 | 1370 | 2150 | 3640 |
| 2026-04-29 14:30 | 6.86 | 3000 | 23200 (2021) | 173 (1964) | 1510 | 196 | 213 | 347 | 394 | 618 | 1280 | 1370 | 2150 | 3640 |
| 2026-04-29 13:30 | 7.08 | 3230 | 23200 (2021) | 173 (1964) | 1510 | 196 | 213 | 347 | 394 | 618 | 1280 | 1370 | 2150 | 3640 |
| 2026-04-29 12:30 | 7.33 | 3490 | 23200 (2021) | 173 (1964) | 1510 | 196 | 213 | 347 | 394 | 618 | 1280 | 1370 | 2150 | 3640 |
| 2026-04-29 11:30 | 7.61 | 3780 | 23200 (2021) | 173 (1964) | 1510 | 196 | 213 | 347 | 394 | 618 | 1280 | 1370 | 2150 | 3640 |
| 2026-04-29 10:30 | 7.86 | 4040 | 23200 (2021) | 173 (1964) | 1510 | 196 | 213 | 347 | 394 | 618 | 1280 | 1370 | 2150 | 3640 |
| 2026-04-29 09:30 | 8.05 | 4250 | 23200 (2021) | 173 (1964) | 1510 | 196 | 213 | 347 | 394 | 618 | 1280 | 1370 | 2150 | 3640 |
| 2026-04-29 08:30 | 8.09 | 4290 | 23200 (2021) | 173 (1964) | 1510 | 196 | 213 | 347 | 394 | 618 | 1280 | 1370 | 2150 | 3640 |
| 2026-04-29 07:30 | 7.90 | 4080 | 23200 (2021) | 173 (1964) | 1510 | 196 | 213 | 347 | 394 | 618 | 1280 | 1370 | 2150 | 3640 |
| 2026-04-29 06:30 | 7.50 | 3660 | 23200 (2021) | 173 (1964) | 1510 | 196 | 213 | 347 | 394 | 618 | 1280 | 1370 | 2150 | 3640 |
| 2026-04-29 05:30 | 6.89 | 3030 | 23200 (2021) | 173 (1964) | 1510 | 196 | 213 | 347 | 394 | 618 | 1280 | 1370 | 2150 | 3640 |
| 2026-04-29 04:30 | 6.34 | 2480 | 23200 (2021) | 173 (1964) | 1510 | 196 | 213 | 347 | 394 | 618 | 1280 | 1370 | 2150 | 3640 |
| 2026-04-29 03:30 | 6.18 | 2330 | 23200 (2021) | 173 (1964) | 1510 | 196 | 213 | 347 | 394 | 618 | 1280 | 1370 | 2150 | 3640 |
| 2026-04-29 02:30 | 6.25 | 2390 | 23200 (2021) | 173 (1964) | 1510 | 196 | 213 | 347 | 394 | 618 | 1280 | 1370 | 2150 | 3640 |
| 2026-04-29 01:30 | 6.33 | 2470 | 23200 (2021) | 173 (1964) | 1510 | 196 | 213 | 347 | 394 | 618 | 1280 | 1370 | 2150 | 3640 |
| 2026-04-29 00:30 | 6.27 | 2410 | 23200 (2021) | 173 (1964) | 1510 | 196 | 213 | 347 | 394 | 618 | 1280 | 1370 | 2150 | 3640 |
| 2026-04-28 23:30 | 5.95 | 2120 | 23200 (2021) | 173 (1964) | 1510 | 196 | 213 | 347 | 394 | 618 | 1280 | 1370 | 2150 | 3640 |
| 2026-04-28 22:30 | 5.60 | 1870 | 21300 (2021) | 110 (1956) | 1280 | 188 | 214 | 325 | 362 | 653 | 1120 | 1460 | 2470 | 3770 |
| 2026-04-28 21:30 | 5.26 | 1640 | 21300 (2021) | 110 (1956) | 1280 | 188 | 214 | 325 | 362 | 653 | 1120 | 1460 | 2470 | 3770 |
| 2026-04-28 20:30 | 5.01 | 1480 | 21300 (2021) | 110 (1956) | 1280 | 188 | 214 | 325 | 362 | 653 | 1120 | 1460 | 2470 | 3770 |
| 2026-04-28 19:30 | 4.96 | 1450 | 21300 (2021) | 110 (1956) | 1280 | 188 | 214 | 325 | 362 | 653 | 1120 | 1460 | 2470 | 3770 |
| 2026-04-28 18:30 | 4.95 | 1440 | 21300 (2021) | 110 (1956) | 1280 | 188 | 214 | 325 | 362 | 653 | 1120 | 1460 | 2470 | 3770 |
| 2026-04-28 17:30 | 4.93 | 1430 | 21300 (2021) | 110 (1956) | 1280 | 188 | 214 | 325 | 362 | 653 | 1120 | 1460 | 2470 | 3770 |
| 2026-04-28 16:30 | 4.76 | 1330 | 21300 (2021) | 110 (1956) | 1280 | 188 | 214 | 325 | 362 | 653 | 1120 | 1460 | 2470 | 3770 |
| 2026-04-28 15:30 | 4.91 | 1420 | 21300 (2021) | 110 (1956) | 1280 | 188 | 214 | 325 | 362 | 653 | 1120 | 1460 | 2470 | 3770 |
| 2026-04-28 14:30 | 4.90 | 1410 | 21300 (2021) | 110 (1956) | 1280 | 188 | 214 | 325 | 362 | 653 | 1120 | 1460 | 2470 | 3770 |
| 2026-04-28 13:30 | 4.95 | 1440 | 21300 (2021) | 110 (1956) | 1280 | 188 | 214 | 325 | 362 | 653 | 1120 | 1460 | 2470 | 3770 |
| 2026-04-28 12:30 | 5.21 | 1610 | 21300 (2021) | 110 (1956) | 1280 | 188 | 214 | 325 | 362 | 653 | 1120 | 1460 | 2470 | 3770 |
| 2026-04-28 11:30 | 4.64 | 1270 | 21300 (2021) | 110 (1956) | 1280 | 188 | 214 | 325 | 362 | 653 | 1120 | 1460 | 2470 | 3770 |
| 2026-04-28 10:30 | 5.17 | 1580 | 21300 (2021) | 110 (1956) | 1280 | 188 | 214 | 325 | 362 | 653 | 1120 | 1460 | 2470 | 3770 |
| 2026-04-28 09:30 | 4.58 | 1230 | 21300 (2021) | 110 (1956) | 1280 | 188 | 214 | 325 | 362 | 653 | 1120 | 1460 | 2470 | 3770 |
| 2026-04-28 08:30 | 5.01 | 1480 | 21300 (2021) | 110 (1956) | 1280 | 188 | 214 | 325 | 362 | 653 | 1120 | 1460 | 2470 | 3770 |
| 2026-04-28 07:30 | 5.04 | 1500 | 21300 (2021) | 110 (1956) | 1280 | 188 | 214 | 325 | 362 | 653 | 1120 | 1460 | 2470 | 3770 |
| 2026-04-28 06:30 | 5.08 | 1520 | 21300 (2021) | 110 (1956) | 1280 | 188 | 214 | 325 | 362 | 653 | 1120 | 1460 | 2470 | 3770 |
| 2026-04-28 05:30 | 5.11 | 1540 | 21300 (2021) | 110 (1956) | 1280 | 188 | 214 | 325 | 362 | 653 | 1120 | 1460 | 2470 | 3770 |
| 2026-04-28 04:30 | 5.15 | 1570 | 21300 (2021) | 110 (1956) | 1280 | 188 | 214 | 325 | 362 | 653 | 1120 | 1460 | 2470 | 3770 |
| 2026-04-28 03:30 | 5.18 | 1590 | 21300 (2021) | 110 (1956) | 1280 | 188 | 214 | 325 | 362 | 653 | 1120 | 1460 | 2470 | 3770 |
| 2026-04-28 02:30 | 5.22 | 1610 | 21300 (2021) | 110 (1956) | 1280 | 188 | 214 | 325 | 362 | 653 | 1120 | 1460 | 2470 | 3770 |
| 2026-04-28 01:30 | 5.26 | 1640 | 21300 (2021) | 110 (1956) | 1280 | 188 | 214 | 325 | 362 | 653 | 1120 | 1460 | 2470 | 3770 |
| 2026-04-28 00:30 | 5.29 | 1660 | 21300 (2021) | 110 (1956) | 1280 | 188 | 214 | 325 | 362 | 653 | 1120 | 1460 | 2470 | 3770 |
| 2026-04-27 23:30 | 5.33 | 1680 | 21300 (2021) | 110 (1956) | 1280 | 188 | 214 | 325 | 362 | 653 | 1120 | 1460 | 2470 | 3770 |
| 2026-04-27 22:30 | 5.36 | 1700 | 11800 (2017) | 137 (1956) | 1170 | 197 | 238 | 336 | 365 | 612 | 1100 | 1240 | 2640 | 3690 |
| 2026-04-27 21:30 | 5.40 | 1730 | 11800 (2017) | 137 (1956) | 1170 | 197 | 238 | 336 | 365 | 612 | 1100 | 1240 | 2640 | 3690 |
| 2026-04-27 20:30 | 5.43 | 1750 | 11800 (2017) | 137 (1956) | 1170 | 197 | 238 | 336 | 365 | 612 | 1100 | 1240 | 2640 | 3690 |
| 2026-04-27 19:30 | 5.47 | 1780 | 11800 (2017) | 137 (1956) | 1170 | 197 | 238 | 336 | 365 | 612 | 1100 | 1240 | 2640 | 3690 |
| 2026-04-27 18:30 | 5.52 | 1810 | 11800 (2017) | 137 (1956) | 1170 | 197 | 238 | 336 | 365 | 612 | 1100 | 1240 | 2640 | 3690 |
| 2026-04-27 17:30 | 5.56 | 1840 | 11800 (2017) | 137 (1956) | 1170 | 197 | 238 | 336 | 365 | 612 | 1100 | 1240 | 2640 | 3690 |
| 2026-04-27 16:30 | 5.62 | 1880 | 11800 (2017) | 137 (1956) | 1170 | 197 | 238 | 336 | 365 | 612 | 1100 | 1240 | 2640 | 3690 |
| 2026-04-27 15:30 | 5.68 | 1920 | 11800 (2017) | 137 (1956) | 1170 | 197 | 238 | 336 | 365 | 612 | 1100 | 1240 | 2640 | 3690 |
| 2026-04-27 14:30 | 5.79 | 2000 | 11800 (2017) | 137 (1956) | 1170 | 197 | 238 | 336 | 365 | 612 | 1100 | 1240 | 2640 | 3690 |
| 2026-04-27 13:30 | 5.89 | 2080 | 11800 (2017) | 137 (1956) | 1170 | 197 | 238 | 336 | 365 | 612 | 1100 | 1240 | 2640 | 3690 |
| 2026-04-27 12:30 | 5.86 | 2050 | 11800 (2017) | 137 (1956) | 1170 | 197 | 238 | 336 | 365 | 612 | 1100 | 1240 | 2640 | 3690 |
| 2026-04-27 11:30 | 5.95 | 2120 | 11800 (2017) | 137 (1956) | 1170 | 197 | 238 | 336 | 365 | 612 | 1100 | 1240 | 2640 | 3690 |
| 2026-04-27 10:30 | 5.99 | 2150 | 11800 (2017) | 137 (1956) | 1170 | 197 | 238 | 336 | 365 | 612 | 1100 | 1240 | 2640 | 3690 |
| 2026-04-27 09:30 | 6.06 | 2210 | 11800 (2017) | 137 (1956) | 1170 | 197 | 238 | 336 | 365 | 612 | 1100 | 1240 | 2640 | 3690 |
| 2026-04-27 08:30 | 6.14 | 2290 | 11800 (2017) | 137 (1956) | 1170 | 197 | 238 | 336 | 365 | 612 | 1100 | 1240 | 2640 | 3690 |
| 2026-04-27 07:30 | 6.22 | 2360 | 11800 (2017) | 137 (1956) | 1170 | 197 | 238 | 336 | 365 | 612 | 1100 | 1240 | 2640 | 3690 |
| 2026-04-27 06:30 | 6.31 | 2450 | 11800 (2017) | 137 (1956) | 1170 | 197 | 238 | 336 | 365 | 612 | 1100 | 1240 | 2640 | 3690 |
| 2026-04-27 05:30 | 6.39 | 2530 | 11800 (2017) | 137 (1956) | 1170 | 197 | 238 | 336 | 365 | 612 | 1100 | 1240 | 2640 | 3690 |
| 2026-04-27 04:30 | 6.48 | 2620 | 11800 (2017) | 137 (1956) | 1170 | 197 | 238 | 336 | 365 | 612 | 1100 | 1240 | 2640 | 3690 |
| 2026-04-27 03:30 | 6.58 | 2720 | 11800 (2017) | 137 (1956) | 1170 | 197 | 238 | 336 | 365 | 612 | 1100 | 1240 | 2640 | 3690 |
| 2026-04-27 02:30 | 6.68 | 2820 | 11800 (2017) | 137 (1956) | 1170 | 197 | 238 | 336 | 365 | 612 | 1100 | 1240 | 2640 | 3690 |
| 2026-04-27 01:30 | 6.77 | 2910 | 11800 (2017) | 137 (1956) | 1170 | 197 | 238 | 336 | 365 | 612 | 1100 | 1240 | 2640 | 3690 |
| 2026-04-27 00:30 | 6.88 | 3020 | 11800 (2017) | 137 (1956) | 1170 | 197 | 238 | 336 | 365 | 612 | 1100 | 1240 | 2640 | 3690 |
| 2026-04-26 23:30 | 7.02 | 3170 | 11800 (2017) | 137 (1956) | 1170 | 197 | 238 | 336 | 365 | 612 | 1100 | 1240 | 2640 | 3690 |
| 2026-04-26 22:30 | 7.18 | 3330 | 47500 (2011) | 144 (1956) | 1760 | 194 | 232 | 324 | 374 | 616 | 1230 | 1310 | 3530 | 5330 |
| 2026-04-26 21:30 | 7.35 | 3510 | 47500 (2011) | 144 (1956) | 1760 | 194 | 232 | 324 | 374 | 616 | 1230 | 1310 | 3530 | 5330 |
| 2026-04-26 20:30 | 7.56 | 3720 | 47500 (2011) | 144 (1956) | 1760 | 194 | 232 | 324 | 374 | 616 | 1230 | 1310 | 3530 | 5330 |
| 2026-04-26 19:30 | 7.84 | 4020 | 47500 (2011) | 144 (1956) | 1760 | 194 | 232 | 324 | 374 | 616 | 1230 | 1310 | 3530 | 5330 |
| 2026-04-26 18:30 | 8.20 | 4410 | 47500 (2011) | 144 (1956) | 1760 | 194 | 232 | 324 | 374 | 616 | 1230 | 1310 | 3530 | 5330 |
| 2026-04-26 17:30 | 8.66 | 4940 | 47500 (2011) | 144 (1956) | 1760 | 194 | 232 | 324 | 374 | 616 | 1230 | 1310 | 3530 | 5330 |
| 2026-04-26 16:30 | 9.20 | 5590 | 47500 (2011) | 144 (1956) | 1760 | 194 | 232 | 324 | 374 | 616 | 1230 | 1310 | 3530 | 5330 |
| 2026-04-26 15:30 | 9.73 | 6270 | 47500 (2011) | 144 (1956) | 1760 | 194 | 232 | 324 | 374 | 616 | 1230 | 1310 | 3530 | 5330 |
| 2026-04-26 14:30 | 10.10 | 6760 | 47500 (2011) | 144 (1956) | 1760 | 194 | 232 | 324 | 374 | 616 | 1230 | 1310 | 3530 | 5330 |
| 2026-04-26 13:30 | 10.18 | 6870 | 47500 (2011) | 144 (1956) | 1760 | 194 | 232 | 324 | 374 | 616 | 1230 | 1310 | 3530 | 5330 |
| 2026-04-26 12:30 | 10.02 | 6650 | 47500 (2011) | 144 (1956) | 1760 | 194 | 232 | 324 | 374 | 616 | 1230 | 1310 | 3530 | 5330 |
| 2026-04-26 11:30 | 9.71 | 6240 | 47500 (2011) | 144 (1956) | 1760 | 194 | 232 | 324 | 374 | 616 | 1230 | 1310 | 3530 | 5330 |
| 2026-04-26 10:30 | 9.21 | 5610 | 47500 (2011) | 144 (1956) | 1760 | 194 | 232 | 324 | 374 | 616 | 1230 | 1310 | 3530 | 5330 |
| 2026-04-26 09:30 | 8.60 | 4870 | 47500 (2011) | 144 (1956) | 1760 | 194 | 232 | 324 | 374 | 616 | 1230 | 1310 | 3530 | 5330 |
| 2026-04-26 08:30 | 7.95 | 4140 | 47500 (2011) | 144 (1956) | 1760 | 194 | 232 | 324 | 374 | 616 | 1230 | 1310 | 3530 | 5330 |
| 2026-04-26 07:30 | 7.48 | 3640 | 47500 (2011) | 144 (1956) | 1760 | 194 | 232 | 324 | 374 | 616 | 1230 | 1310 | 3530 | 5330 |
| 2026-04-26 06:30 | 7.46 | 3620 | 47500 (2011) | 144 (1956) | 1760 | 194 | 232 | 324 | 374 | 616 | 1230 | 1310 | 3530 | 5330 |
| 2026-04-26 05:30 | 7.54 | 3700 | 47500 (2011) | 144 (1956) | 1760 | 194 | 232 | 324 | 374 | 616 | 1230 | 1310 | 3530 | 5330 |
| 2026-04-26 04:30 | 7.35 | 3510 | 47500 (2011) | 144 (1956) | 1760 | 194 | 232 | 324 | 374 | 616 | 1230 | 1310 | 3530 | 5330 |
| 2026-04-26 03:30 | 6.87 | 3010 | 47500 (2011) | 144 (1956) | 1760 | 194 | 232 | 324 | 374 | 616 | 1230 | 1310 | 3530 | 5330 |
| 2026-04-26 02:30 | 6.48 | 2620 | 47500 (2011) | 144 (1956) | 1760 | 194 | 232 | 324 | 374 | 616 | 1230 | 1310 | 3530 | 5330 |
| 2026-04-26 01:30 | 5.86 | 2050 | 47500 (2011) | 144 (1956) | 1760 | 194 | 232 | 324 | 374 | 616 | 1230 | 1310 | 3530 | 5330 |
| 2026-04-26 00:30 | 5.58 | 1850 | 47500 (2011) | 144 (1956) | 1760 | 194 | 232 | 324 | 374 | 616 | 1230 | 1310 | 3530 | 5330 |
| 2026-04-25 23:30 | 5.52 | 1810 | 47500 (2011) | 144 (1956) | 1760 | 194 | 232 | 324 | 374 | 616 | 1230 | 1310 | 3530 | 5330 |
| 2026-04-25 22:30 | 5.49 | 1790 | 53100 (2011) | 142 (1963) | 1960 | 194 | 222 | 329 | 377 | 633 | 1500 | 1570 | 2930 | 6600 |
| 2026-04-25 21:30 | 5.37 | 1710 | 53100 (2011) | 142 (1963) | 1960 | 194 | 222 | 329 | 377 | 633 | 1500 | 1570 | 2930 | 6600 |
| 2026-04-25 20:30 | 5.45 | 1770 | 53100 (2011) | 142 (1963) | 1960 | 194 | 222 | 329 | 377 | 633 | 1500 | 1570 | 2930 | 6600 |
| 2026-04-25 19:30 | 5.47 | 1780 | 53100 (2011) | 142 (1963) | 1960 | 194 | 222 | 329 | 377 | 633 | 1500 | 1570 | 2930 | 6600 |
| 2026-04-25 18:30 | 5.53 | 1820 | 53100 (2011) | 142 (1963) | 1960 | 194 | 222 | 329 | 377 | 633 | 1500 | 1570 | 2930 | 6600 |
| 2026-04-25 17:30 | 5.58 | 1850 | 53100 (2011) | 142 (1963) | 1960 | 194 | 222 | 329 | 377 | 633 | 1500 | 1570 | 2930 | 6600 |
| 2026-04-25 16:30 | 5.64 | 1900 | 53100 (2011) | 142 (1963) | 1960 | 194 | 222 | 329 | 377 | 633 | 1500 | 1570 | 2930 | 6600 |
| 2026-04-25 15:30 | 5.72 | 1950 | 53100 (2011) | 142 (1963) | 1960 | 194 | 222 | 329 | 377 | 633 | 1500 | 1570 | 2930 | 6600 |
| 2026-04-25 14:30 | 5.80 | 2010 | 53100 (2011) | 142 (1963) | 1960 | 194 | 222 | 329 | 377 | 633 | 1500 | 1570 | 2930 | 6600 |
| 2026-04-25 13:30 | 5.88 | 2070 | 53100 (2011) | 142 (1963) | 1960 | 194 | 222 | 329 | 377 | 633 | 1500 | 1570 | 2930 | 6600 |
| 2026-04-25 12:30 | 5.97 | 2140 | 53100 (2011) | 142 (1963) | 1960 | 194 | 222 | 329 | 377 | 633 | 1500 | 1570 | 2930 | 6600 |
| 2026-04-25 11:30 | 6.07 | 2220 | 53100 (2011) | 142 (1963) | 1960 | 194 | 222 | 329 | 377 | 633 | 1500 | 1570 | 2930 | 6600 |
| 2026-04-25 10:30 | 6.18 | 2330 | 53100 (2011) | 142 (1963) | 1960 | 194 | 222 | 329 | 377 | 633 | 1500 | 1570 | 2930 | 6600 |
| 2026-04-25 09:30 | 6.29 | 2430 | 53100 (2011) | 142 (1963) | 1960 | 194 | 222 | 329 | 377 | 633 | 1500 | 1570 | 2930 | 6600 |
| 2026-04-25 08:30 | 6.42 | 2560 | 53100 (2011) | 142 (1963) | 1960 | 194 | 222 | 329 | 377 | 633 | 1500 | 1570 | 2930 | 6600 |
| 2026-04-25 07:30 | 6.56 | 2700 | 53100 (2011) | 142 (1963) | 1960 | 194 | 222 | 329 | 377 | 633 | 1500 | 1570 | 2930 | 6600 |
| 2026-04-25 06:30 | 6.71 | 2850 | 53100 (2011) | 142 (1963) | 1960 | 194 | 222 | 329 | 377 | 633 | 1500 | 1570 | 2930 | 6600 |
| 2026-04-25 05:30 | 6.89 | 3030 | 53100 (2011) | 142 (1963) | 1960 | 194 | 222 | 329 | 377 | 633 | 1500 | 1570 | 2930 | 6600 |
| 2026-04-25 04:30 | 7.08 | 3230 | 53100 (2011) | 142 (1963) | 1960 | 194 | 222 | 329 | 377 | 633 | 1500 | 1570 | 2930 | 6600 |
| 2026-04-25 03:30 | 7.30 | 3460 | 53100 (2011) | 142 (1963) | 1960 | 194 | 222 | 329 | 377 | 633 | 1500 | 1570 | 2930 | 6600 |
| 2026-04-25 02:30 | 7.58 | 3750 | 53100 (2011) | 142 (1963) | 1960 | 194 | 222 | 329 | 377 | 633 | 1500 | 1570 | 2930 | 6600 |
| 2026-04-25 01:30 | 7.91 | 4090 | 53100 (2011) | 142 (1963) | 1960 | 194 | 222 | 329 | 377 | 633 | 1500 | 1570 | 2930 | 6600 |
| 2026-04-25 00:30 | 8.32 | 4550 | 53100 (2011) | 142 (1963) | 1960 | 194 | 222 | 329 | 377 | 633 | 1500 | 1570 | 2930 | 6600 |
| 2026-04-24 23:30 | 8.82 | 5130 | 53100 (2011) | 142 (1963) | 1960 | 194 | 222 | 329 | 377 | 633 | 1500 | 1570 | 2930 | 6600 |
| 2026-04-24 22:30 | 9.36 | 5790 | 21800 (2011) | 110 (2006) | 1760 | 167 | 230 | 325 | 396 | 654 | 1820 | 1940 | 3940 | 7040 |
| 2026-04-24 21:30 | 9.87 | 6450 | 21800 (2011) | 110 (2006) | 1760 | 167 | 230 | 325 | 396 | 654 | 1820 | 1940 | 3940 | 7040 |
| 2026-04-24 20:30 | 10.20 | 6890 | 21800 (2011) | 110 (2006) | 1760 | 167 | 230 | 325 | 396 | 654 | 1820 | 1940 | 3940 | 7040 |
| 2026-04-24 19:30 | 10.26 | 6980 | 21800 (2011) | 110 (2006) | 1760 | 167 | 230 | 325 | 396 | 654 | 1820 | 1940 | 3940 | 7040 |
| 2026-04-24 18:30 | 10.03 | 6660 | 21800 (2011) | 110 (2006) | 1760 | 167 | 230 | 325 | 396 | 654 | 1820 | 1940 | 3940 | 7040 |
| 2026-04-24 17:30 | 9.52 | 6000 | 21800 (2011) | 110 (2006) | 1760 | 167 | 230 | 325 | 396 | 654 | 1820 | 1940 | 3940 | 7040 |
| 2026-04-24 16:30 | 8.72 | 5010 | 21800 (2011) | 110 (2006) | 1760 | 167 | 230 | 325 | 396 | 654 | 1820 | 1940 | 3940 | 7040 |
| 2026-04-24 15:30 | 7.82 | 4000 | 21800 (2011) | 110 (2006) | 1760 | 167 | 230 | 325 | 396 | 654 | 1820 | 1940 | 3940 | 7040 |
| 2026-04-24 14:30 | 6.66 | 2800 | 21800 (2011) | 110 (2006) | 1760 | 167 | 230 | 325 | 396 | 654 | 1820 | 1940 | 3940 | 7040 |
| 2026-04-24 13:30 | 5.96 | 2130 | 21800 (2011) | 110 (2006) | 1760 | 167 | 230 | 325 | 396 | 654 | 1820 | 1940 | 3940 | 7040 |
| 2026-04-24 12:30 | 6.01 | 2170 | 21800 (2011) | 110 (2006) | 1760 | 167 | 230 | 325 | 396 | 654 | 1820 | 1940 | 3940 | 7040 |
| 2026-04-24 11:30 | 6.03 | 2190 | 21800 (2011) | 110 (2006) | 1760 | 167 | 230 | 325 | 396 | 654 | 1820 | 1940 | 3940 | 7040 |
| 2026-04-24 10:30 | 5.71 | 1950 | 21800 (2011) | 110 (2006) | 1760 | 167 | 230 | 325 | 396 | 654 | 1820 | 1940 | 3940 | 7040 |
| 2026-04-24 09:30 | 4.93 | 1430 | 21800 (2011) | 110 (2006) | 1760 | 167 | 230 | 325 | 396 | 654 | 1820 | 1940 | 3940 | 7040 |
| 2026-04-24 08:30 | 4.09 | 982 | 21800 (2011) | 110 (2006) | 1760 | 167 | 230 | 325 | 396 | 654 | 1820 | 1940 | 3940 | 7040 |
| 2026-04-24 07:30 | 3.52 | 695 | 21800 (2011) | 110 (2006) | 1760 | 167 | 230 | 325 | 396 | 654 | 1820 | 1940 | 3940 | 7040 |
| 2026-04-24 06:30 | 3.37 | 627 | 21800 (2011) | 110 (2006) | 1760 | 167 | 230 | 325 | 396 | 654 | 1820 | 1940 | 3940 | 7040 |
| 2026-04-24 05:30 | 3.26 | 580 | 21800 (2011) | 110 (2006) | 1760 | 167 | 230 | 325 | 396 | 654 | 1820 | 1940 | 3940 | 7040 |
| 2026-04-24 04:30 | 3.18 | 548 | 21800 (2011) | 110 (2006) | 1760 | 167 | 230 | 325 | 396 | 654 | 1820 | 1940 | 3940 | 7040 |
| 2026-04-24 03:30 | 3.08 | 509 | 21800 (2011) | 110 (2006) | 1760 | 167 | 230 | 325 | 396 | 654 | 1820 | 1940 | 3940 | 7040 |
| 2026-04-24 02:30 | 2.97 | 467 | 21800 (2011) | 110 (2006) | 1760 | 167 | 230 | 325 | 396 | 654 | 1820 | 1940 | 3940 | 7040 |
| 2026-04-24 01:30 | 2.99 | 475 | 21800 (2011) | 110 (2006) | 1760 | 167 | 230 | 325 | 396 | 654 | 1820 | 1940 | 3940 | 7040 |
| 2026-04-24 00:30 | 2.99 | 475 | 21800 (2011) | 110 (2006) | 1760 | 167 | 230 | 325 | 396 | 654 | 1820 | 1940 | 3940 | 7040 |
| 2026-04-23 23:30 | 3.00 | 478 | 21800 (2011) | 110 (2006) | 1760 | 167 | 230 | 325 | 396 | 654 | 1820 | 1940 | 3940 | 7040 |
| 2026-04-23 22:30 | 3.01 | 482 | 11500 (1973) | 113 (2006) | 1400 | 165 | 224 | 334 | 404 | 670 | 1420 | 2010 | 2770 | 5690 |
| 2026-04-23 21:30 | 3.01 | 482 | 11500 (1973) | 113 (2006) | 1400 | 165 | 224 | 334 | 404 | 670 | 1420 | 2010 | 2770 | 5690 |
| 2026-04-23 20:30 | 3.01 | 482 | 11500 (1973) | 113 (2006) | 1400 | 165 | 224 | 334 | 404 | 670 | 1420 | 2010 | 2770 | 5690 |
| 2026-04-23 19:30 | 2.99 | 475 | 11500 (1973) | 113 (2006) | 1400 | 165 | 224 | 334 | 404 | 670 | 1420 | 2010 | 2770 | 5690 |
| 2026-04-23 18:30 | 2.99 | 475 | 11500 (1973) | 113 (2006) | 1400 | 165 | 224 | 334 | 404 | 670 | 1420 | 2010 | 2770 | 5690 |
| 2026-04-23 17:30 | 2.99 | 475 | 11500 (1973) | 113 (2006) | 1400 | 165 | 224 | 334 | 404 | 670 | 1420 | 2010 | 2770 | 5690 |
| 2026-04-23 16:30 | 2.99 | 475 | 11500 (1973) | 113 (2006) | 1400 | 165 | 224 | 334 | 404 | 670 | 1420 | 2010 | 2770 | 5690 |
| 2026-04-23 15:30 | 2.99 | 475 | 11500 (1973) | 113 (2006) | 1400 | 165 | 224 | 334 | 404 | 670 | 1420 | 2010 | 2770 | 5690 |
| 2026-04-23 14:30 | 3.00 | 478 | 11500 (1973) | 113 (2006) | 1400 | 165 | 224 | 334 | 404 | 670 | 1420 | 2010 | 2770 | 5690 |
| 2026-04-23 13:30 | 3.03 | 490 | 11500 (1973) | 113 (2006) | 1400 | 165 | 224 | 334 | 404 | 670 | 1420 | 2010 | 2770 | 5690 |
| 2026-04-23 12:30 | 3.04 | 493 | 11500 (1973) | 113 (2006) | 1400 | 165 | 224 | 334 | 404 | 670 | 1420 | 2010 | 2770 | 5690 |
| 2026-04-23 11:30 | 3.03 | 490 | 11500 (1973) | 113 (2006) | 1400 | 165 | 224 | 334 | 404 | 670 | 1420 | 2010 | 2770 | 5690 |
| 2026-04-23 10:30 | 2.99 | 475 | 11500 (1973) | 113 (2006) | 1400 | 165 | 224 | 334 | 404 | 670 | 1420 | 2010 | 2770 | 5690 |
| 2026-04-23 09:30 | 3.05 | 497 | 11500 (1973) | 113 (2006) | 1400 | 165 | 224 | 334 | 404 | 670 | 1420 | 2010 | 2770 | 5690 |
| 2026-04-23 08:30 | 3.05 | 497 | 11500 (1973) | 113 (2006) | 1400 | 165 | 224 | 334 | 404 | 670 | 1420 | 2010 | 2770 | 5690 |
| 2026-04-23 07:30 | 3.05 | 497 | 11500 (1973) | 113 (2006) | 1400 | 165 | 224 | 334 | 404 | 670 | 1420 | 2010 | 2770 | 5690 |
| 2026-04-23 06:30 | 3.05 | 497 | 11500 (1973) | 113 (2006) | 1400 | 165 | 224 | 334 | 404 | 670 | 1420 | 2010 | 2770 | 5690 |
| 2026-04-23 05:30 | 3.05 | 497 | 11500 (1973) | 113 (2006) | 1400 | 165 | 224 | 334 | 404 | 670 | 1420 | 2010 | 2770 | 5690 |
| 2026-04-23 04:30 | 3.05 | 497 | 11500 (1973) | 113 (2006) | 1400 | 165 | 224 | 334 | 404 | 670 | 1420 | 2010 | 2770 | 5690 |
| 2026-04-23 03:30 | 3.06 | 501 | 11500 (1973) | 113 (2006) | 1400 | 165 | 224 | 334 | 404 | 670 | 1420 | 2010 | 2770 | 5690 |
| 2026-04-23 02:30 | 3.06 | 501 | 11500 (1973) | 113 (2006) | 1400 | 165 | 224 | 334 | 404 | 670 | 1420 | 2010 | 2770 | 5690 |
| 2026-04-23 01:30 | 3.06 | 501 | 11500 (1973) | 113 (2006) | 1400 | 165 | 224 | 334 | 404 | 670 | 1420 | 2010 | 2770 | 5690 |
| 2026-04-23 00:30 | 3.07 | 505 | 11500 (1973) | 113 (2006) | 1400 | 165 | 224 | 334 | 404 | 670 | 1420 | 2010 | 2770 | 5690 |
| 2026-04-22 23:30 | 3.07 | 505 | 11500 (1973) | 113 (2006) | 1400 | 165 | 224 | 334 | 404 | 670 | 1420 | 2010 | 2770 | 5690 |
| 2026-04-22 22:30 | 3.08 | 509 | 18700 (2017) | 117 (2006) | 1350 | 179 | 237 | 351 | 414 | 616 | 1170 | 1560 | 3550 | 5340 |
| 2026-04-22 21:30 | 3.09 | 512 | 18700 (2017) | 117 (2006) | 1350 | 179 | 237 | 351 | 414 | 616 | 1170 | 1560 | 3550 | 5340 |
| 2026-04-22 20:30 | 3.09 | 512 | 18700 (2017) | 117 (2006) | 1350 | 179 | 237 | 351 | 414 | 616 | 1170 | 1560 | 3550 | 5340 |
| 2026-04-22 19:30 | 3.09 | 512 | 18700 (2017) | 117 (2006) | 1350 | 179 | 237 | 351 | 414 | 616 | 1170 | 1560 | 3550 | 5340 |
| 2026-04-22 18:30 | 3.10 | 516 | 18700 (2017) | 117 (2006) | 1350 | 179 | 237 | 351 | 414 | 616 | 1170 | 1560 | 3550 | 5340 |
| 2026-04-22 17:30 | 3.09 | 512 | 18700 (2017) | 117 (2006) | 1350 | 179 | 237 | 351 | 414 | 616 | 1170 | 1560 | 3550 | 5340 |
| 2026-04-22 16:30 | 3.10 | 516 | 18700 (2017) | 117 (2006) | 1350 | 179 | 237 | 351 | 414 | 616 | 1170 | 1560 | 3550 | 5340 |
| 2026-04-22 15:30 | 3.11 | 520 | 18700 (2017) | 117 (2006) | 1350 | 179 | 237 | 351 | 414 | 616 | 1170 | 1560 | 3550 | 5340 |
| 2026-04-22 14:30 | 3.11 | 520 | 18700 (2017) | 117 (2006) | 1350 | 179 | 237 | 351 | 414 | 616 | 1170 | 1560 | 3550 | 5340 |
| 2026-04-22 13:30 | 3.12 | 524 | 18700 (2017) | 117 (2006) | 1350 | 179 | 237 | 351 | 414 | 616 | 1170 | 1560 | 3550 | 5340 |
| 2026-04-22 12:30 | 3.13 | 528 | 18700 (2017) | 117 (2006) | 1350 | 179 | 237 | 351 | 414 | 616 | 1170 | 1560 | 3550 | 5340 |
| 2026-04-22 11:30 | 3.13 | 528 | 18700 (2017) | 117 (2006) | 1350 | 179 | 237 | 351 | 414 | 616 | 1170 | 1560 | 3550 | 5340 |
| 2026-04-22 10:30 | 3.13 | 528 | 18700 (2017) | 117 (2006) | 1350 | 179 | 237 | 351 | 414 | 616 | 1170 | 1560 | 3550 | 5340 |
| 2026-04-22 09:30 | 3.14 | 532 | 18700 (2017) | 117 (2006) | 1350 | 179 | 237 | 351 | 414 | 616 | 1170 | 1560 | 3550 | 5340 |
| 2026-04-22 08:30 | 3.14 | 532 | 18700 (2017) | 117 (2006) | 1350 | 179 | 237 | 351 | 414 | 616 | 1170 | 1560 | 3550 | 5340 |
| 2026-04-22 07:30 | 3.15 | 536 | 18700 (2017) | 117 (2006) | 1350 | 179 | 237 | 351 | 414 | 616 | 1170 | 1560 | 3550 | 5340 |
| 2026-04-22 06:30 | 3.15 | 536 | 18700 (2017) | 117 (2006) | 1350 | 179 | 237 | 351 | 414 | 616 | 1170 | 1560 | 3550 | 5340 |
| 2026-04-22 05:30 | 3.16 | 540 | 18700 (2017) | 117 (2006) | 1350 | 179 | 237 | 351 | 414 | 616 | 1170 | 1560 | 3550 | 5340 |
| 2026-04-22 04:30 | 3.16 | 540 | 18700 (2017) | 117 (2006) | 1350 | 179 | 237 | 351 | 414 | 616 | 1170 | 1560 | 3550 | 5340 |
| 2026-04-22 03:30 | 3.17 | 544 | 18700 (2017) | 117 (2006) | 1350 | 179 | 237 | 351 | 414 | 616 | 1170 | 1560 | 3550 | 5340 |
| 2026-04-22 02:30 | 3.17 | 544 | 18700 (2017) | 117 (2006) | 1350 | 179 | 237 | 351 | 414 | 616 | 1170 | 1560 | 3550 | 5340 |
| 2026-04-22 01:30 | 3.18 | 548 | 18700 (2017) | 117 (2006) | 1350 | 179 | 237 | 351 | 414 | 616 | 1170 | 1560 | 3550 | 5340 |
| 2026-04-22 00:30 | 3.18 | 548 | 18700 (2017) | 117 (2006) | 1350 | 179 | 237 | 351 | 414 | 616 | 1170 | 1560 | 3550 | 5340 |
| 2026-04-21 23:30 | 3.19 | 552 | 18700 (2017) | 117 (2006) | 1350 | 179 | 237 | 351 | 414 | 616 | 1170 | 1560 | 3550 | 5340 |
| 2026-04-21 22:30 | 3.19 | 552 | 12100 (1976) | 119 (2006) | 1350 | 172 | 245 | 314 | 371 | 564 | 1220 | 1450 | 3030 | 6230 |
| 2026-04-21 21:30 | 3.20 | 556 | 12100 (1976) | 119 (2006) | 1350 | 172 | 245 | 314 | 371 | 564 | 1220 | 1450 | 3030 | 6230 |
| 2026-04-21 20:30 | 3.21 | 560 | 12100 (1976) | 119 (2006) | 1350 | 172 | 245 | 314 | 371 | 564 | 1220 | 1450 | 3030 | 6230 |
| 2026-04-21 19:30 | 3.22 | 564 | 12100 (1976) | 119 (2006) | 1350 | 172 | 245 | 314 | 371 | 564 | 1220 | 1450 | 3030 | 6230 |
| 2026-04-21 18:30 | 3.20 | 556 | 12100 (1976) | 119 (2006) | 1350 | 172 | 245 | 314 | 371 | 564 | 1220 | 1450 | 3030 | 6230 |
| 2026-04-21 17:30 | 3.25 | 576 | 12100 (1976) | 119 (2006) | 1350 | 172 | 245 | 314 | 371 | 564 | 1220 | 1450 | 3030 | 6230 |
| 2026-04-21 16:30 | 3.29 | 593 | 12100 (1976) | 119 (2006) | 1350 | 172 | 245 | 314 | 371 | 564 | 1220 | 1450 | 3030 | 6230 |
| 2026-04-21 15:30 | 3.20 | 556 | 12100 (1976) | 119 (2006) | 1350 | 172 | 245 | 314 | 371 | 564 | 1220 | 1450 | 3030 | 6230 |
| 2026-04-21 14:30 | 3.25 | 576 | 12100 (1976) | 119 (2006) | 1350 | 172 | 245 | 314 | 371 | 564 | 1220 | 1450 | 3030 | 6230 |
| 2026-04-21 13:30 | 3.24 | 572 | 12100 (1976) | 119 (2006) | 1350 | 172 | 245 | 314 | 371 | 564 | 1220 | 1450 | 3030 | 6230 |
| 2026-04-21 12:30 | 3.26 | 580 | 12100 (1976) | 119 (2006) | 1350 | 172 | 245 | 314 | 371 | 564 | 1220 | 1450 | 3030 | 6230 |
| 2026-04-21 11:30 | 3.27 | 585 | 12100 (1976) | 119 (2006) | 1350 | 172 | 245 | 314 | 371 | 564 | 1220 | 1450 | 3030 | 6230 |
| 2026-04-21 10:30 | 3.27 | 585 | 12100 (1976) | 119 (2006) | 1350 | 172 | 245 | 314 | 371 | 564 | 1220 | 1450 | 3030 | 6230 |
| 2026-04-21 09:30 | 3.25 | 576 | 12100 (1976) | 119 (2006) | 1350 | 172 | 245 | 314 | 371 | 564 | 1220 | 1450 | 3030 | 6230 |
| 2026-04-21 08:30 | 3.31 | 601 | 12100 (1976) | 119 (2006) | 1350 | 172 | 245 | 314 | 371 | 564 | 1220 | 1450 | 3030 | 6230 |
| 2026-04-21 07:30 | 3.32 | 606 | 12100 (1976) | 119 (2006) | 1350 | 172 | 245 | 314 | 371 | 564 | 1220 | 1450 | 3030 | 6230 |
| 2026-04-21 06:30 | 3.32 | 606 | 12100 (1976) | 119 (2006) | 1350 | 172 | 245 | 314 | 371 | 564 | 1220 | 1450 | 3030 | 6230 |
| 2026-04-21 05:30 | 3.33 | 610 | 12100 (1976) | 119 (2006) | 1350 | 172 | 245 | 314 | 371 | 564 | 1220 | 1450 | 3030 | 6230 |
| 2026-04-21 04:30 | 3.33 | 610 | 12100 (1976) | 119 (2006) | 1350 | 172 | 245 | 314 | 371 | 564 | 1220 | 1450 | 3030 | 6230 |
| 2026-04-21 03:30 | 3.34 | 614 | 12100 (1976) | 119 (2006) | 1350 | 172 | 245 | 314 | 371 | 564 | 1220 | 1450 | 3030 | 6230 |
| 2026-04-21 02:30 | 3.35 | 619 | 12100 (1976) | 119 (2006) | 1350 | 172 | 245 | 314 | 371 | 564 | 1220 | 1450 | 3030 | 6230 |
| 2026-04-21 01:30 | 3.35 | 619 | 12100 (1976) | 119 (2006) | 1350 | 172 | 245 | 314 | 371 | 564 | 1220 | 1450 | 3030 | 6230 |
| 2026-04-21 00:30 | 3.36 | 623 | 12100 (1976) | 119 (2006) | 1350 | 172 | 245 | 314 | 371 | 564 | 1220 | 1450 | 3030 | 6230 |
| 2026-04-20 23:30 | 3.37 | 627 | 12100 (1976) | 119 (2006) | 1350 | 172 | 245 | 314 | 371 | 564 | 1220 | 1450 | 3030 | 6230 |
| 2026-04-20 22:30 | 3.37 | 627 | 19400 (1976) | 121 (2006) | 1400 | 189 | 215 | 312 | 332 | 557 | 956 | 1290 | 3330 | 6190 |
| 2026-04-20 21:30 | 3.39 | 636 | 19400 (1976) | 121 (2006) | 1400 | 189 | 215 | 312 | 332 | 557 | 956 | 1290 | 3330 | 6190 |
| 2026-04-20 20:30 | 3.39 | 636 | 19400 (1976) | 121 (2006) | 1400 | 189 | 215 | 312 | 332 | 557 | 956 | 1290 | 3330 | 6190 |
| 2026-04-20 19:30 | 3.40 | 640 | 19400 (1976) | 121 (2006) | 1400 | 189 | 215 | 312 | 332 | 557 | 956 | 1290 | 3330 | 6190 |
| 2026-04-20 18:30 | 3.42 | 649 | 19400 (1976) | 121 (2006) | 1400 | 189 | 215 | 312 | 332 | 557 | 956 | 1290 | 3330 | 6190 |
| 2026-04-20 17:30 | 3.42 | 649 | 19400 (1976) | 121 (2006) | 1400 | 189 | 215 | 312 | 332 | 557 | 956 | 1290 | 3330 | 6190 |
| 2026-04-20 16:30 | 3.43 | 654 | 19400 (1976) | 121 (2006) | 1400 | 189 | 215 | 312 | 332 | 557 | 956 | 1290 | 3330 | 6190 |
| 2026-04-20 15:30 | 3.45 | 663 | 19400 (1976) | 121 (2006) | 1400 | 189 | 215 | 312 | 332 | 557 | 956 | 1290 | 3330 | 6190 |
| 2026-04-20 14:30 | 3.46 | 667 | 19400 (1976) | 121 (2006) | 1400 | 189 | 215 | 312 | 332 | 557 | 956 | 1290 | 3330 | 6190 |
| 2026-04-20 13:30 | 3.47 | 672 | 19400 (1976) | 121 (2006) | 1400 | 189 | 215 | 312 | 332 | 557 | 956 | 1290 | 3330 | 6190 |
| 2026-04-20 12:30 | 3.48 | 676 | 19400 (1976) | 121 (2006) | 1400 | 189 | 215 | 312 | 332 | 557 | 956 | 1290 | 3330 | 6190 |
| 2026-04-20 11:30 | 3.49 | 681 | 19400 (1976) | 121 (2006) | 1400 | 189 | 215 | 312 | 332 | 557 | 956 | 1290 | 3330 | 6190 |
| 2026-04-20 10:30 | 3.51 | 690 | 19400 (1976) | 121 (2006) | 1400 | 189 | 215 | 312 | 332 | 557 | 956 | 1290 | 3330 | 6190 |
| 2026-04-20 09:30 | 3.53 | 699 | 19400 (1976) | 121 (2006) | 1400 | 189 | 215 | 312 | 332 | 557 | 956 | 1290 | 3330 | 6190 |
| 2026-04-20 08:30 | 3.54 | 704 | 19400 (1976) | 121 (2006) | 1400 | 189 | 215 | 312 | 332 | 557 | 956 | 1290 | 3330 | 6190 |
| 2026-04-20 07:30 | 3.55 | 709 | 19400 (1976) | 121 (2006) | 1400 | 189 | 215 | 312 | 332 | 557 | 956 | 1290 | 3330 | 6190 |
| 2026-04-20 06:30 | 3.56 | 713 | 19400 (1976) | 121 (2006) | 1400 | 189 | 215 | 312 | 332 | 557 | 956 | 1290 | 3330 | 6190 |
| 2026-04-20 05:30 | 3.57 | 718 | 19400 (1976) | 121 (2006) | 1400 | 189 | 215 | 312 | 332 | 557 | 956 | 1290 | 3330 | 6190 |
| 2026-04-20 04:30 | 3.58 | 723 | 19400 (1976) | 121 (2006) | 1400 | 189 | 215 | 312 | 332 | 557 | 956 | 1290 | 3330 | 6190 |
| 2026-04-20 03:30 | 3.60 | 732 | 19400 (1976) | 121 (2006) | 1400 | 189 | 215 | 312 | 332 | 557 | 956 | 1290 | 3330 | 6190 |
| 2026-04-20 02:30 | 3.61 | 737 | 19400 (1976) | 121 (2006) | 1400 | 189 | 215 | 312 | 332 | 557 | 956 | 1290 | 3330 | 6190 |
| 2026-04-20 01:30 | 3.62 | 742 | 19400 (1976) | 121 (2006) | 1400 | 189 | 215 | 312 | 332 | 557 | 956 | 1290 | 3330 | 6190 |
| 2026-04-20 00:30 | 3.64 | 752 | 19400 (1976) | 121 (2006) | 1400 | 189 | 215 | 312 | 332 | 557 | 956 | 1290 | 3330 | 6190 |
| 2026-04-19 23:30 | 3.66 | 761 | 19400 (1976) | 121 (2006) | 1400 | 189 | 215 | 312 | 332 | 557 | 956 | 1290 | 3330 | 6190 |
| 2026-04-19 22:30 | 3.68 | 771 | 7160 (2013) | 126 (2006) | 935 | 168 | 218 | 293 | 337 | 535 | 978 | 1020 | 1960 | 3420 |
| 2026-04-19 21:30 | 3.70 | 781 | 7160 (2013) | 126 (2006) | 935 | 168 | 218 | 293 | 337 | 535 | 978 | 1020 | 1960 | 3420 |
| 2026-04-19 20:30 | 3.73 | 796 | 7160 (2013) | 126 (2006) | 935 | 168 | 218 | 293 | 337 | 535 | 978 | 1020 | 1960 | 3420 |
| 2026-04-19 19:30 | 3.76 | 811 | 7160 (2013) | 126 (2006) | 935 | 168 | 218 | 293 | 337 | 535 | 978 | 1020 | 1960 | 3420 |
| 2026-04-19 18:30 | 3.78 | 822 | 7160 (2013) | 126 (2006) | 935 | 168 | 218 | 293 | 337 | 535 | 978 | 1020 | 1960 | 3420 |
| 2026-04-19 17:30 | 3.81 | 837 | 7160 (2013) | 126 (2006) | 935 | 168 | 218 | 293 | 337 | 535 | 978 | 1020 | 1960 | 3420 |
| 2026-04-19 16:30 | 3.84 | 853 | 7160 (2013) | 126 (2006) | 935 | 168 | 218 | 293 | 337 | 535 | 978 | 1020 | 1960 | 3420 |
| 2026-04-19 15:30 | 3.87 | 869 | 7160 (2013) | 126 (2006) | 935 | 168 | 218 | 293 | 337 | 535 | 978 | 1020 | 1960 | 3420 |
| 2026-04-19 14:30 | 3.90 | 885 | 7160 (2013) | 126 (2006) | 935 | 168 | 218 | 293 | 337 | 535 | 978 | 1020 | 1960 | 3420 |
| 2026-04-19 13:30 | 3.93 | 901 | 7160 (2013) | 126 (2006) | 935 | 168 | 218 | 293 | 337 | 535 | 978 | 1020 | 1960 | 3420 |
| 2026-04-19 12:30 | 3.96 | 917 | 7160 (2013) | 126 (2006) | 935 | 168 | 218 | 293 | 337 | 535 | 978 | 1020 | 1960 | 3420 |
| 2026-04-19 11:30 | 4.00 | 940 | 7160 (2013) | 126 (2006) | 935 | 168 | 218 | 293 | 337 | 535 | 978 | 1020 | 1960 | 3420 |
| 2026-04-19 10:30 | 4.02 | 949 | 7160 (2013) | 126 (2006) | 935 | 168 | 218 | 293 | 337 | 535 | 978 | 1020 | 1960 | 3420 |
| 2026-04-19 09:30 | 4.04 | 958 | 7160 (2013) | 126 (2006) | 935 | 168 | 218 | 293 | 337 | 535 | 978 | 1020 | 1960 | 3420 |
| 2026-04-19 08:30 | 4.08 | 977 | 7160 (2013) | 126 (2006) | 935 | 168 | 218 | 293 | 337 | 535 | 978 | 1020 | 1960 | 3420 |
| 2026-04-19 07:30 | 4.14 | 1010 | 7160 (2013) | 126 (2006) | 935 | 168 | 218 | 293 | 337 | 535 | 978 | 1020 | 1960 | 3420 |
| 2026-04-19 06:30 | 4.18 | 1030 | 7160 (2013) | 126 (2006) | 935 | 168 | 218 | 293 | 337 | 535 | 978 | 1020 | 1960 | 3420 |
| 2026-04-19 05:30 | 4.22 | 1040 | 7160 (2013) | 126 (2006) | 935 | 168 | 218 | 293 | 337 | 535 | 978 | 1020 | 1960 | 3420 |
| 2026-04-19 04:30 | 4.28 | 1070 | 7160 (2013) | 126 (2006) | 935 | 168 | 218 | 293 | 337 | 535 | 978 | 1020 | 1960 | 3420 |
| 2026-04-19 03:30 | 4.33 | 1100 | 7160 (2013) | 126 (2006) | 935 | 168 | 218 | 293 | 337 | 535 | 978 | 1020 | 1960 | 3420 |
| 2026-04-19 02:30 | 4.39 | 1130 | 7160 (2013) | 126 (2006) | 935 | 168 | 218 | 293 | 337 | 535 | 978 | 1020 | 1960 | 3420 |
| 2026-04-19 01:30 | 4.45 | 1160 | 7160 (2013) | 126 (2006) | 935 | 168 | 218 | 293 | 337 | 535 | 978 | 1020 | 1960 | 3420 |
| 2026-04-19 00:30 | 4.51 | 1190 | 7160 (2013) | 126 (2006) | 935 | 168 | 218 | 293 | 337 | 535 | 978 | 1020 | 1960 | 3420 |
| 2026-04-18 23:30 | 4.54 | 1210 | 7160 (2013) | 126 (2006) | 935 | 168 | 218 | 293 | 337 | 535 | 978 | 1020 | 1960 | 3420 |
| 2026-04-18 22:30 | 4.56 | 1220 | 5910 (1990) | 113 (1981) | 807 | 171 | 228 | 320 | 360 | 559 | 883 | 972 | 1730 | 2370 |
| 2026-04-18 21:30 | 4.53 | 1210 | 5910 (1990) | 113 (1981) | 807 | 171 | 228 | 320 | 360 | 559 | 883 | 972 | 1730 | 2370 |
| 2026-04-18 20:30 | 4.35 | 1110 | 5910 (1990) | 113 (1981) | 807 | 171 | 228 | 320 | 360 | 559 | 883 | 972 | 1730 | 2370 |
| 2026-04-18 19:30 | 4.11 | 991 | 5910 (1990) | 113 (1981) | 807 | 171 | 228 | 320 | 360 | 559 | 883 | 972 | 1730 | 2370 |
| 2026-04-18 18:30 | 3.82 | 842 | 5910 (1990) | 113 (1981) | 807 | 171 | 228 | 320 | 360 | 559 | 883 | 972 | 1730 | 2370 |
| 2026-04-18 17:30 | 3.57 | 718 | 5910 (1990) | 113 (1981) | 807 | 171 | 228 | 320 | 360 | 559 | 883 | 972 | 1730 | 2370 |
| 2026-04-18 16:30 | 3.43 | 654 | 5910 (1990) | 113 (1981) | 807 | 171 | 228 | 320 | 360 | 559 | 883 | 972 | 1730 | 2370 |
| 2026-04-18 15:30 | 3.39 | 636 | 5910 (1990) | 113 (1981) | 807 | 171 | 228 | 320 | 360 | 559 | 883 | 972 | 1730 | 2370 |
| 2026-04-18 14:30 | 3.38 | 632 | 5910 (1990) | 113 (1981) | 807 | 171 | 228 | 320 | 360 | 559 | 883 | 972 | 1730 | 2370 |
| 2026-04-18 13:30 | 3.38 | 632 | 5910 (1990) | 113 (1981) | 807 | 171 | 228 | 320 | 360 | 559 | 883 | 972 | 1730 | 2370 |
| 2026-04-18 12:30 | 3.37 | 627 | 5910 (1990) | 113 (1981) | 807 | 171 | 228 | 320 | 360 | 559 | 883 | 972 | 1730 | 2370 |
| 2026-04-18 11:30 | 3.36 | 623 | 5910 (1990) | 113 (1981) | 807 | 171 | 228 | 320 | 360 | 559 | 883 | 972 | 1730 | 2370 |
| 2026-04-18 10:30 | 3.38 | 632 | 5910 (1990) | 113 (1981) | 807 | 171 | 228 | 320 | 360 | 559 | 883 | 972 | 1730 | 2370 |
| 2026-04-18 09:30 | 3.38 | 632 | 5910 (1990) | 113 (1981) | 807 | 171 | 228 | 320 | 360 | 559 | 883 | 972 | 1730 | 2370 |
| 2026-04-18 08:30 | 3.38 | 632 | 5910 (1990) | 113 (1981) | 807 | 171 | 228 | 320 | 360 | 559 | 883 | 972 | 1730 | 2370 |
| 2026-04-18 07:30 | 3.38 | 632 | 5910 (1990) | 113 (1981) | 807 | 171 | 228 | 320 | 360 | 559 | 883 | 972 | 1730 | 2370 |
| 2026-04-18 06:30 | 3.38 | 632 | 5910 (1990) | 113 (1981) | 807 | 171 | 228 | 320 | 360 | 559 | 883 | 972 | 1730 | 2370 |
| 2026-04-18 05:30 | 3.38 | 632 | 5910 (1990) | 113 (1981) | 807 | 171 | 228 | 320 | 360 | 559 | 883 | 972 | 1730 | 2370 |
| 2026-04-18 04:30 | 3.36 | 623 | 5910 (1990) | 113 (1981) | 807 | 171 | 228 | 320 | 360 | 559 | 883 | 972 | 1730 | 2370 |
| 2026-04-18 03:30 | 3.34 | 614 | 5910 (1990) | 113 (1981) | 807 | 171 | 228 | 320 | 360 | 559 | 883 | 972 | 1730 | 2370 |
| 2026-04-18 02:30 | 3.35 | 619 | 5910 (1990) | 113 (1981) | 807 | 171 | 228 | 320 | 360 | 559 | 883 | 972 | 1730 | 2370 |
| 2026-04-18 01:30 | 3.36 | 623 | 5910 (1990) | 113 (1981) | 807 | 171 | 228 | 320 | 360 | 559 | 883 | 972 | 1730 | 2370 |
| 2026-04-18 00:30 | 3.28 | 589 | 5910 (1990) | 113 (1981) | 807 | 171 | 228 | 320 | 360 | 559 | 883 | 972 | 1730 | 2370 |
| 2026-04-17 23:30 | 3.32 | 606 | 5910 (1990) | 113 (1981) | 807 | 171 | 228 | 320 | 360 | 559 | 883 | 972 | 1730 | 2370 |
| 2026-04-17 22:30 | 3.33 | 610 | 7380 (1990) | 117 (1981) | 816 | 179 | 219 | 340 | 389 | 572 | 850 | 1040 | 1330 | 2310 |
| 2026-04-17 21:30 | 3.35 | 619 | 7380 (1990) | 117 (1981) | 816 | 179 | 219 | 340 | 389 | 572 | 850 | 1040 | 1330 | 2310 |
| 2026-04-17 20:30 | 3.36 | 623 | 7380 (1990) | 117 (1981) | 816 | 179 | 219 | 340 | 389 | 572 | 850 | 1040 | 1330 | 2310 |
| 2026-04-17 19:30 | 3.36 | 623 | 7380 (1990) | 117 (1981) | 816 | 179 | 219 | 340 | 389 | 572 | 850 | 1040 | 1330 | 2310 |
| 2026-04-17 18:30 | 3.36 | 623 | 7380 (1990) | 117 (1981) | 816 | 179 | 219 | 340 | 389 | 572 | 850 | 1040 | 1330 | 2310 |
| 2026-04-17 17:30 | 3.34 | 614 | 7380 (1990) | 117 (1981) | 816 | 179 | 219 | 340 | 389 | 572 | 850 | 1040 | 1330 | 2310 |
| 2026-04-17 16:30 | 3.36 | 623 | 7380 (1990) | 117 (1981) | 816 | 179 | 219 | 340 | 389 | 572 | 850 | 1040 | 1330 | 2310 |
| 2026-04-17 15:30 | 3.36 | 623 | 7380 (1990) | 117 (1981) | 816 | 179 | 219 | 340 | 389 | 572 | 850 | 1040 | 1330 | 2310 |
| 2026-04-17 14:30 | 3.37 | 627 | 7380 (1990) | 117 (1981) | 816 | 179 | 219 | 340 | 389 | 572 | 850 | 1040 | 1330 | 2310 |
| 2026-04-17 13:30 | 3.39 | 636 | 7380 (1990) | 117 (1981) | 816 | 179 | 219 | 340 | 389 | 572 | 850 | 1040 | 1330 | 2310 |
| 2026-04-17 12:30 | 3.41 | 645 | 7380 (1990) | 117 (1981) | 816 | 179 | 219 | 340 | 389 | 572 | 850 | 1040 | 1330 | 2310 |
| 2026-04-17 11:30 | 3.45 | 663 | 7380 (1990) | 117 (1981) | 816 | 179 | 219 | 340 | 389 | 572 | 850 | 1040 | 1330 | 2310 |
| 2026-04-17 10:30 | 3.42 | 649 | 7380 (1990) | 117 (1981) | 816 | 179 | 219 | 340 | 389 | 572 | 850 | 1040 | 1330 | 2310 |
| 2026-04-17 09:30 | 3.46 | 667 | 7380 (1990) | 117 (1981) | 816 | 179 | 219 | 340 | 389 | 572 | 850 | 1040 | 1330 | 2310 |
| 2026-04-17 08:30 | 3.49 | 681 | 7380 (1990) | 117 (1981) | 816 | 179 | 219 | 340 | 389 | 572 | 850 | 1040 | 1330 | 2310 |
| 2026-04-17 07:30 | 3.55 | 709 | 7380 (1990) | 117 (1981) | 816 | 179 | 219 | 340 | 389 | 572 | 850 | 1040 | 1330 | 2310 |
| 2026-04-17 06:30 | 3.58 | 723 | 7380 (1990) | 117 (1981) | 816 | 179 | 219 | 340 | 389 | 572 | 850 | 1040 | 1330 | 2310 |
| 2026-04-17 05:30 | 3.59 | 728 | 7380 (1990) | 117 (1981) | 816 | 179 | 219 | 340 | 389 | 572 | 850 | 1040 | 1330 | 2310 |
| 2026-04-17 04:30 | 3.62 | 742 | 7380 (1990) | 117 (1981) | 816 | 179 | 219 | 340 | 389 | 572 | 850 | 1040 | 1330 | 2310 |
| 2026-04-17 03:30 | 3.64 | 752 | 7380 (1990) | 117 (1981) | 816 | 179 | 219 | 340 | 389 | 572 | 850 | 1040 | 1330 | 2310 |
| 2026-04-17 02:30 | 3.66 | 761 | 7380 (1990) | 117 (1981) | 816 | 179 | 219 | 340 | 389 | 572 | 850 | 1040 | 1330 | 2310 |
| 2026-04-17 01:30 | 3.68 | 771 | 7380 (1990) | 117 (1981) | 816 | 179 | 219 | 340 | 389 | 572 | 850 | 1040 | 1330 | 2310 |
| 2026-04-17 00:30 | 3.70 | 781 | 7380 (1990) | 117 (1981) | 816 | 179 | 219 | 340 | 389 | 572 | 850 | 1040 | 1330 | 2310 |
| 2026-04-16 23:30 | 3.72 | 791 | 7380 (1990) | 117 (1981) | 816 | 179 | 219 | 340 | 389 | 572 | 850 | 1040 | 1330 | 2310 |
| 2026-04-16 22:30 | 3.75 | 806 | 5940 (1973) | 109 (1981) | 828 | 193 | 219 | 317 | 371 | 607 | 930 | 1070 | 1470 | 2400 |
| 2026-04-16 21:30 | 3.78 | 822 | 5940 (1973) | 109 (1981) | 828 | 193 | 219 | 317 | 371 | 607 | 930 | 1070 | 1470 | 2400 |
| 2026-04-16 20:30 | 3.81 | 837 | 5940 (1973) | 109 (1981) | 828 | 193 | 219 | 317 | 371 | 607 | 930 | 1070 | 1470 | 2400 |
| 2026-04-16 19:30 | 3.85 | 858 | 5940 (1973) | 109 (1981) | 828 | 193 | 219 | 317 | 371 | 607 | 930 | 1070 | 1470 | 2400 |
| 2026-04-16 18:30 | 3.90 | 885 | 5940 (1973) | 109 (1981) | 828 | 193 | 219 | 317 | 371 | 607 | 930 | 1070 | 1470 | 2400 |
| 2026-04-16 17:30 | 3.96 | 917 | 5940 (1973) | 109 (1981) | 828 | 193 | 219 | 317 | 371 | 607 | 930 | 1070 | 1470 | 2400 |
| 2026-04-16 16:30 | 4.02 | 949 | 5940 (1973) | 109 (1981) | 828 | 193 | 219 | 317 | 371 | 607 | 930 | 1070 | 1470 | 2400 |
| 2026-04-16 15:30 | 4.07 | 972 | 5940 (1973) | 109 (1981) | 828 | 193 | 219 | 317 | 371 | 607 | 930 | 1070 | 1470 | 2400 |
| 2026-04-16 14:30 | 4.12 | 996 | 5940 (1973) | 109 (1981) | 828 | 193 | 219 | 317 | 371 | 607 | 930 | 1070 | 1470 | 2400 |
| 2026-04-16 13:30 | 4.14 | 1010 | 5940 (1973) | 109 (1981) | 828 | 193 | 219 | 317 | 371 | 607 | 930 | 1070 | 1470 | 2400 |
| 2026-04-16 12:30 | 4.15 | 1010 | 5940 (1973) | 109 (1981) | 828 | 193 | 219 | 317 | 371 | 607 | 930 | 1070 | 1470 | 2400 |
| 2026-04-16 11:30 | 4.14 | 1010 | 5940 (1973) | 109 (1981) | 828 | 193 | 219 | 317 | 371 | 607 | 930 | 1070 | 1470 | 2400 |
| 2026-04-16 10:30 | 4.04 | 958 | 5940 (1973) | 109 (1981) | 828 | 193 | 219 | 317 | 371 | 607 | 930 | 1070 | 1470 | 2400 |
| 2026-04-16 09:30 | 3.88 | 874 | 5940 (1973) | 109 (1981) | 828 | 193 | 219 | 317 | 371 | 607 | 930 | 1070 | 1470 | 2400 |
| 2026-04-16 08:30 | 3.74 | 801 | 5940 (1973) | 109 (1981) | 828 | 193 | 219 | 317 | 371 | 607 | 930 | 1070 | 1470 | 2400 |
| 2026-04-16 07:30 | 3.68 | 771 | 5940 (1973) | 109 (1981) | 828 | 193 | 219 | 317 | 371 | 607 | 930 | 1070 | 1470 | 2400 |
| 2026-04-16 06:30 | 3.70 | 781 | 5940 (1973) | 109 (1981) | 828 | 193 | 219 | 317 | 371 | 607 | 930 | 1070 | 1470 | 2400 |
| 2026-04-16 05:30 | 3.75 | 806 | 5940 (1973) | 109 (1981) | 828 | 193 | 219 | 317 | 371 | 607 | 930 | 1070 | 1470 | 2400 |
| 2026-04-16 04:30 | 3.78 | 822 | 5940 (1973) | 109 (1981) | 828 | 193 | 219 | 317 | 371 | 607 | 930 | 1070 | 1470 | 2400 |
| 2026-04-16 03:30 | 3.80 | 832 | 5940 (1973) | 109 (1981) | 828 | 193 | 219 | 317 | 371 | 607 | 930 | 1070 | 1470 | 2400 |
| 2026-04-16 02:30 | 3.80 | 832 | 5940 (1973) | 109 (1981) | 828 | 193 | 219 | 317 | 371 | 607 | 930 | 1070 | 1470 | 2400 |
| 2026-04-16 01:30 | 3.74 | 801 | 5940 (1973) | 109 (1981) | 828 | 193 | 219 | 317 | 371 | 607 | 930 | 1070 | 1470 | 2400 |
| 2026-04-16 00:30 | 3.59 | 728 | 5940 (1973) | 109 (1981) | 828 | 193 | 219 | 317 | 371 | 607 | 930 | 1070 | 1470 | 2400 |
| 2026-04-15 23:30 | 3.32 | 606 | 5940 (1973) | 109 (1981) | 828 | 193 | 219 | 317 | 371 | 607 | 930 | 1070 | 1470 | 2400 |
| 2026-04-15 22:30 | 3.12 | 524 | 8630 (1993) | 109 (1981) | 943 | 181 | 218 | 302 | 358 | 629 | 1030 | 1200 | 1810 | 2610 |
| 2026-04-15 21:30 | 3.08 | 509 | 8630 (1993) | 109 (1981) | 943 | 181 | 218 | 302 | 358 | 629 | 1030 | 1200 | 1810 | 2610 |
| 2026-04-15 20:30 | 3.07 | 505 | 8630 (1993) | 109 (1981) | 943 | 181 | 218 | 302 | 358 | 629 | 1030 | 1200 | 1810 | 2610 |
| 2026-04-15 19:30 | 3.08 | 509 | 8630 (1993) | 109 (1981) | 943 | 181 | 218 | 302 | 358 | 629 | 1030 | 1200 | 1810 | 2610 |
| 2026-04-15 18:30 | 3.05 | 497 | 8630 (1993) | 109 (1981) | 943 | 181 | 218 | 302 | 358 | 629 | 1030 | 1200 | 1810 | 2610 |
| 2026-04-15 17:30 | 3.00 | 478 | 8630 (1993) | 109 (1981) | 943 | 181 | 218 | 302 | 358 | 629 | 1030 | 1200 | 1810 | 2610 |
| 2026-04-15 16:30 | 2.99 | 475 | 8630 (1993) | 109 (1981) | 943 | 181 | 218 | 302 | 358 | 629 | 1030 | 1200 | 1810 | 2610 |
| 2026-04-15 15:30 | 2.99 | 475 | 8630 (1993) | 109 (1981) | 943 | 181 | 218 | 302 | 358 | 629 | 1030 | 1200 | 1810 | 2610 |
| 2026-04-15 14:30 | 2.99 | 475 | 8630 (1993) | 109 (1981) | 943 | 181 | 218 | 302 | 358 | 629 | 1030 | 1200 | 1810 | 2610 |
| 2026-04-15 13:30 | 3.00 | 478 | 8630 (1993) | 109 (1981) | 943 | 181 | 218 | 302 | 358 | 629 | 1030 | 1200 | 1810 | 2610 |
| 2026-04-15 12:30 | 3.02 | 486 | 8630 (1993) | 109 (1981) | 943 | 181 | 218 | 302 | 358 | 629 | 1030 | 1200 | 1810 | 2610 |
| 2026-04-15 11:30 | 3.07 | 505 | 8630 (1993) | 109 (1981) | 943 | 181 | 218 | 302 | 358 | 629 | 1030 | 1200 | 1810 | 2610 |
| 2026-04-15 10:30 | 3.12 | 524 | 8630 (1993) | 109 (1981) | 943 | 181 | 218 | 302 | 358 | 629 | 1030 | 1200 | 1810 | 2610 |
| 2026-04-15 09:30 | 2.96 | 464 | 8630 (1993) | 109 (1981) | 943 | 181 | 218 | 302 | 358 | 629 | 1030 | 1200 | 1810 | 2610 |
| 2026-04-15 08:30 | 2.96 | 464 | 8630 (1993) | 109 (1981) | 943 | 181 | 218 | 302 | 358 | 629 | 1030 | 1200 | 1810 | 2610 |
| 2026-04-15 07:30 | 2.96 | 464 | 8630 (1993) | 109 (1981) | 943 | 181 | 218 | 302 | 358 | 629 | 1030 | 1200 | 1810 | 2610 |
| 2026-04-15 06:30 | 2.93 | 453 | 8630 (1993) | 109 (1981) | 943 | 181 | 218 | 302 | 358 | 629 | 1030 | 1200 | 1810 | 2610 |
| 2026-04-15 05:30 | 2.93 | 453 | 8630 (1993) | 109 (1981) | 943 | 181 | 218 | 302 | 358 | 629 | 1030 | 1200 | 1810 | 2610 |
| 2026-04-15 04:30 | 2.93 | 453 | 8630 (1993) | 109 (1981) | 943 | 181 | 218 | 302 | 358 | 629 | 1030 | 1200 | 1810 | 2610 |
| 2026-04-15 03:30 | 2.93 | 453 | 8630 (1993) | 109 (1981) | 943 | 181 | 218 | 302 | 358 | 629 | 1030 | 1200 | 1810 | 2610 |
| 2026-04-15 02:30 | 2.87 | 432 | 8630 (1993) | 109 (1981) | 943 | 181 | 218 | 302 | 358 | 629 | 1030 | 1200 | 1810 | 2610 |
| 2026-04-15 01:30 | 2.87 | 432 | 8630 (1993) | 109 (1981) | 943 | 181 | 218 | 302 | 358 | 629 | 1030 | 1200 | 1810 | 2610 |
| 2026-04-15 00:30 | 2.84 | 422 | 8630 (1993) | 109 (1981) | 943 | 181 | 218 | 302 | 358 | 629 | 1030 | 1200 | 1810 | 2610 |
| 2026-04-14 23:30 | 2.84 | 422 | 8630 (1993) | 109 (1981) | 943 | 181 | 218 | 302 | 358 | 629 | 1030 | 1200 | 1810 | 2610 |
| 2026-04-14 22:30 | 2.84 | 422 | 7760 (1991) | 102 (1981) | 1070 | 159 | 213 | 322 | 351 | 632 | 1050 | 1250 | 2190 | 4490 |
| 2026-04-14 21:30 | 2.85 | 425 | 7760 (1991) | 102 (1981) | 1070 | 159 | 213 | 322 | 351 | 632 | 1050 | 1250 | 2190 | 4490 |
| 2026-04-14 20:30 | 2.85 | 425 | 7760 (1991) | 102 (1981) | 1070 | 159 | 213 | 322 | 351 | 632 | 1050 | 1250 | 2190 | 4490 |
| 2026-04-14 19:30 | 2.81 | 411 | 7760 (1991) | 102 (1981) | 1070 | 159 | 213 | 322 | 351 | 632 | 1050 | 1250 | 2190 | 4490 |
| 2026-04-14 18:30 | 2.86 | 428 | 7760 (1991) | 102 (1981) | 1070 | 159 | 213 | 322 | 351 | 632 | 1050 | 1250 | 2190 | 4490 |
| 2026-04-14 17:30 | 2.85 | 425 | 7760 (1991) | 102 (1981) | 1070 | 159 | 213 | 322 | 351 | 632 | 1050 | 1250 | 2190 | 4490 |
| 2026-04-14 16:30 | 2.83 | 418 | 7760 (1991) | 102 (1981) | 1070 | 159 | 213 | 322 | 351 | 632 | 1050 | 1250 | 2190 | 4490 |
| 2026-04-14 15:30 | 2.86 | 428 | 7760 (1991) | 102 (1981) | 1070 | 159 | 213 | 322 | 351 | 632 | 1050 | 1250 | 2190 | 4490 |
| 2026-04-14 14:30 | 2.86 | 428 | 7760 (1991) | 102 (1981) | 1070 | 159 | 213 | 322 | 351 | 632 | 1050 | 1250 | 2190 | 4490 |
| 2026-04-14 13:30 | 2.86 | 428 | 7760 (1991) | 102 (1981) | 1070 | 159 | 213 | 322 | 351 | 632 | 1050 | 1250 | 2190 | 4490 |
| 2026-04-14 12:30 | 2.83 | 418 | 7760 (1991) | 102 (1981) | 1070 | 159 | 213 | 322 | 351 | 632 | 1050 | 1250 | 2190 | 4490 |
| 2026-04-14 11:30 | 2.85 | 425 | 7760 (1991) | 102 (1981) | 1070 | 159 | 213 | 322 | 351 | 632 | 1050 | 1250 | 2190 | 4490 |
| 2026-04-14 09:30 | 2.84 | 422 | 7760 (1991) | 102 (1981) | 1070 | 159 | 213 | 322 | 351 | 632 | 1050 | 1250 | 2190 | 4490 |
| 2026-04-14 08:30 | 2.86 | 428 | 7760 (1991) | 102 (1981) | 1070 | 159 | 213 | 322 | 351 | 632 | 1050 | 1250 | 2190 | 4490 |
| 2026-04-14 07:30 | 2.87 | 432 | 7760 (1991) | 102 (1981) | 1070 | 159 | 213 | 322 | 351 | 632 | 1050 | 1250 | 2190 | 4490 |
| 2026-04-14 06:30 | 2.87 | 432 | 7760 (1991) | 102 (1981) | 1070 | 159 | 213 | 322 | 351 | 632 | 1050 | 1250 | 2190 | 4490 |
| 2026-04-14 05:30 | 2.85 | 425 | 7760 (1991) | 102 (1981) | 1070 | 159 | 213 | 322 | 351 | 632 | 1050 | 1250 | 2190 | 4490 |
| 2026-04-14 04:30 | 2.87 | 432 | 7760 (1991) | 102 (1981) | 1070 | 159 | 213 | 322 | 351 | 632 | 1050 | 1250 | 2190 | 4490 |
| 2026-04-14 03:30 | 2.88 | 435 | 7760 (1991) | 102 (1981) | 1070 | 159 | 213 | 322 | 351 | 632 | 1050 | 1250 | 2190 | 4490 |
| 2026-04-14 02:30 | 2.88 | 435 | 7760 (1991) | 102 (1981) | 1070 | 159 | 213 | 322 | 351 | 632 | 1050 | 1250 | 2190 | 4490 |
| 2026-04-14 01:30 | 2.86 | 428 | 7760 (1991) | 102 (1981) | 1070 | 159 | 213 | 322 | 351 | 632 | 1050 | 1250 | 2190 | 4490 |
| 2026-04-14 00:30 | 2.86 | 428 | 7760 (1991) | 102 (1981) | 1070 | 159 | 213 | 322 | 351 | 632 | 1050 | 1250 | 2190 | 4490 |
| 2026-04-13 23:30 | 2.84 | 422 | 7760 (1991) | 102 (1981) | 1070 | 159 | 213 | 322 | 351 | 632 | 1050 | 1250 | 2190 | 4490 |
| 2026-04-13 22:30 | 2.78 | 401 | 6110 (2022) | 108 (1981) | 974 | 153 | 216 | 308 | 348 | 618 | 1140 | 1260 | 2210 | 3480 |
| 2026-04-13 21:30 | 2.77 | 398 | 6110 (2022) | 108 (1981) | 974 | 153 | 216 | 308 | 348 | 618 | 1140 | 1260 | 2210 | 3480 |
| 2026-04-13 20:30 | 2.89 | 439 | 6110 (2022) | 108 (1981) | 974 | 153 | 216 | 308 | 348 | 618 | 1140 | 1260 | 2210 | 3480 |
| 2026-04-13 19:30 | 2.90 | 442 | 6110 (2022) | 108 (1981) | 974 | 153 | 216 | 308 | 348 | 618 | 1140 | 1260 | 2210 | 3480 |
| 2026-04-13 18:30 | 2.87 | 432 | 6110 (2022) | 108 (1981) | 974 | 153 | 216 | 308 | 348 | 618 | 1140 | 1260 | 2210 | 3480 |
| 2026-04-13 17:30 | 2.86 | 428 | 6110 (2022) | 108 (1981) | 974 | 153 | 216 | 308 | 348 | 618 | 1140 | 1260 | 2210 | 3480 |
| 2026-04-13 16:30 | 2.86 | 428 | 6110 (2022) | 108 (1981) | 974 | 153 | 216 | 308 | 348 | 618 | 1140 | 1260 | 2210 | 3480 |
| 2026-04-13 15:30 | 2.89 | 439 | 6110 (2022) | 108 (1981) | 974 | 153 | 216 | 308 | 348 | 618 | 1140 | 1260 | 2210 | 3480 |
| 2026-04-13 14:30 | 2.88 | 435 | 6110 (2022) | 108 (1981) | 974 | 153 | 216 | 308 | 348 | 618 | 1140 | 1260 | 2210 | 3480 |
| 2026-04-13 13:30 | 2.89 | 439 | 6110 (2022) | 108 (1981) | 974 | 153 | 216 | 308 | 348 | 618 | 1140 | 1260 | 2210 | 3480 |
| 2026-04-13 12:30 | 2.95 | 460 | 6110 (2022) | 108 (1981) | 974 | 153 | 216 | 308 | 348 | 618 | 1140 | 1260 | 2210 | 3480 |
| 2026-04-13 11:30 | 2.98 | 471 | 6110 (2022) | 108 (1981) | 974 | 153 | 216 | 308 | 348 | 618 | 1140 | 1260 | 2210 | 3480 |
| 2026-04-13 10:30 | 3.00 | 478 | 6110 (2022) | 108 (1981) | 974 | 153 | 216 | 308 | 348 | 618 | 1140 | 1260 | 2210 | 3480 |
| 2026-04-13 09:30 | 2.97 | 467 | 6110 (2022) | 108 (1981) | 974 | 153 | 216 | 308 | 348 | 618 | 1140 | 1260 | 2210 | 3480 |
| 2026-04-13 08:30 | 2.89 | 439 | 6110 (2022) | 108 (1981) | 974 | 153 | 216 | 308 | 348 | 618 | 1140 | 1260 | 2210 | 3480 |
| 2026-04-13 07:30 | 2.92 | 449 | 6110 (2022) | 108 (1981) | 974 | 153 | 216 | 308 | 348 | 618 | 1140 | 1260 | 2210 | 3480 |
| 2026-04-13 06:30 | 2.92 | 449 | 6110 (2022) | 108 (1981) | 974 | 153 | 216 | 308 | 348 | 618 | 1140 | 1260 | 2210 | 3480 |
| 2026-04-13 05:30 | 2.92 | 449 | 6110 (2022) | 108 (1981) | 974 | 153 | 216 | 308 | 348 | 618 | 1140 | 1260 | 2210 | 3480 |
| 2026-04-13 04:30 | 2.93 | 453 | 6110 (2022) | 108 (1981) | 974 | 153 | 216 | 308 | 348 | 618 | 1140 | 1260 | 2210 | 3480 |
| 2026-04-13 03:30 | 2.93 | 453 | 6110 (2022) | 108 (1981) | 974 | 153 | 216 | 308 | 348 | 618 | 1140 | 1260 | 2210 | 3480 |
| 2026-04-13 02:30 | 2.93 | 453 | 6110 (2022) | 108 (1981) | 974 | 153 | 216 | 308 | 348 | 618 | 1140 | 1260 | 2210 | 3480 |
| 2026-04-13 01:30 | 2.94 | 457 | 6110 (2022) | 108 (1981) | 974 | 153 | 216 | 308 | 348 | 618 | 1140 | 1260 | 2210 | 3480 |
| 2026-04-13 00:30 | 2.94 | 457 | 6110 (2022) | 108 (1981) | 974 | 153 | 216 | 308 | 348 | 618 | 1140 | 1260 | 2210 | 3480 |
| 2026-04-12 23:30 | 2.95 | 460 | 6110 (2022) | 108 (1981) | 974 | 153 | 216 | 308 | 348 | 618 | 1140 | 1260 | 2210 | 3480 |
| 2026-04-12 22:30 | 2.95 | 460 | 12100 (1979) | 115 (1981) | 1010 | 151 | 218 | 282 | 327 | 631 | 1240 | 1330 | 1790 | 3040 |
| 2026-04-12 21:30 | 2.94 | 457 | 12100 (1979) | 115 (1981) | 1010 | 151 | 218 | 282 | 327 | 631 | 1240 | 1330 | 1790 | 3040 |
| 2026-04-12 20:30 | 2.94 | 457 | 12100 (1979) | 115 (1981) | 1010 | 151 | 218 | 282 | 327 | 631 | 1240 | 1330 | 1790 | 3040 |
| 2026-04-12 19:30 | 2.92 | 449 | 12100 (1979) | 115 (1981) | 1010 | 151 | 218 | 282 | 327 | 631 | 1240 | 1330 | 1790 | 3040 |
| 2026-04-12 18:30 | 2.94 | 457 | 12100 (1979) | 115 (1981) | 1010 | 151 | 218 | 282 | 327 | 631 | 1240 | 1330 | 1790 | 3040 |
| 2026-04-12 17:30 | 2.95 | 460 | 12100 (1979) | 115 (1981) | 1010 | 151 | 218 | 282 | 327 | 631 | 1240 | 1330 | 1790 | 3040 |
| 2026-04-12 16:30 | 2.99 | 475 | 12100 (1979) | 115 (1981) | 1010 | 151 | 218 | 282 | 327 | 631 | 1240 | 1330 | 1790 | 3040 |
| 2026-04-12 15:30 | 2.99 | 475 | 12100 (1979) | 115 (1981) | 1010 | 151 | 218 | 282 | 327 | 631 | 1240 | 1330 | 1790 | 3040 |
| 2026-04-12 14:30 | 3.01 | 482 | 12100 (1979) | 115 (1981) | 1010 | 151 | 218 | 282 | 327 | 631 | 1240 | 1330 | 1790 | 3040 |
| 2026-04-12 13:30 | 2.97 | 467 | 12100 (1979) | 115 (1981) | 1010 | 151 | 218 | 282 | 327 | 631 | 1240 | 1330 | 1790 | 3040 |
| 2026-04-12 12:30 | 3.03 | 490 | 12100 (1979) | 115 (1981) | 1010 | 151 | 218 | 282 | 327 | 631 | 1240 | 1330 | 1790 | 3040 |
| 2026-04-12 11:30 | 3.01 | 482 | 12100 (1979) | 115 (1981) | 1010 | 151 | 218 | 282 | 327 | 631 | 1240 | 1330 | 1790 | 3040 |
| 2026-04-12 10:30 | 3.08 | 509 | 12100 (1979) | 115 (1981) | 1010 | 151 | 218 | 282 | 327 | 631 | 1240 | 1330 | 1790 | 3040 |
| 2026-04-12 09:30 | 3.05 | 497 | 12100 (1979) | 115 (1981) | 1010 | 151 | 218 | 282 | 327 | 631 | 1240 | 1330 | 1790 | 3040 |
| 2026-04-12 08:30 | 3.02 | 486 | 12100 (1979) | 115 (1981) | 1010 | 151 | 218 | 282 | 327 | 631 | 1240 | 1330 | 1790 | 3040 |
| 2026-04-12 07:30 | 3.01 | 482 | 12100 (1979) | 115 (1981) | 1010 | 151 | 218 | 282 | 327 | 631 | 1240 | 1330 | 1790 | 3040 |
| 2026-04-12 06:30 | 3.01 | 482 | 12100 (1979) | 115 (1981) | 1010 | 151 | 218 | 282 | 327 | 631 | 1240 | 1330 | 1790 | 3040 |
| 2026-04-12 05:30 | 3.01 | 482 | 12100 (1979) | 115 (1981) | 1010 | 151 | 218 | 282 | 327 | 631 | 1240 | 1330 | 1790 | 3040 |
| 2026-04-12 04:30 | 3.01 | 482 | 12100 (1979) | 115 (1981) | 1010 | 151 | 218 | 282 | 327 | 631 | 1240 | 1330 | 1790 | 3040 |
| 2026-04-12 03:30 | 3.01 | 482 | 12100 (1979) | 115 (1981) | 1010 | 151 | 218 | 282 | 327 | 631 | 1240 | 1330 | 1790 | 3040 |
| 2026-04-12 02:30 | 3.02 | 486 | 12100 (1979) | 115 (1981) | 1010 | 151 | 218 | 282 | 327 | 631 | 1240 | 1330 | 1790 | 3040 |
| 2026-04-12 01:30 | 3.02 | 486 | 12100 (1979) | 115 (1981) | 1010 | 151 | 218 | 282 | 327 | 631 | 1240 | 1330 | 1790 | 3040 |
| 2026-04-12 00:30 | 3.02 | 486 | 12100 (1979) | 115 (1981) | 1010 | 151 | 218 | 282 | 327 | 631 | 1240 | 1330 | 1790 | 3040 |
| 2026-04-11 23:30 | 3.02 | 486 | 12100 (1979) | 115 (1981) | 1010 | 151 | 218 | 282 | 327 | 631 | 1240 | 1330 | 1790 | 3040 |
| 2026-04-11 22:30 | 3.02 | 486 | 12000 (2008) | 99 (1967) | 1010 | 129 | 209 | 296 | 333 | 608 | 1080 | 1380 | 1920 | 3440 |
| 2026-04-11 21:30 | 3.02 | 486 | 12000 (2008) | 99 (1967) | 1010 | 129 | 209 | 296 | 333 | 608 | 1080 | 1380 | 1920 | 3440 |
| 2026-04-11 20:30 | 3.00 | 478 | 12000 (2008) | 99 (1967) | 1010 | 129 | 209 | 296 | 333 | 608 | 1080 | 1380 | 1920 | 3440 |
| 2026-04-11 19:30 | 2.97 | 467 | 12000 (2008) | 99 (1967) | 1010 | 129 | 209 | 296 | 333 | 608 | 1080 | 1380 | 1920 | 3440 |
| 2026-04-11 18:30 | 2.99 | 475 | 12000 (2008) | 99 (1967) | 1010 | 129 | 209 | 296 | 333 | 608 | 1080 | 1380 | 1920 | 3440 |
| 2026-04-11 17:30 | 3.06 | 501 | 12000 (2008) | 99 (1967) | 1010 | 129 | 209 | 296 | 333 | 608 | 1080 | 1380 | 1920 | 3440 |
| 2026-04-11 16:30 | 3.06 | 501 | 12000 (2008) | 99 (1967) | 1010 | 129 | 209 | 296 | 333 | 608 | 1080 | 1380 | 1920 | 3440 |
| 2026-04-11 15:30 | 3.05 | 497 | 12000 (2008) | 99 (1967) | 1010 | 129 | 209 | 296 | 333 | 608 | 1080 | 1380 | 1920 | 3440 |
| 2026-04-11 14:30 | 3.05 | 497 | 12000 (2008) | 99 (1967) | 1010 | 129 | 209 | 296 | 333 | 608 | 1080 | 1380 | 1920 | 3440 |
| 2026-04-11 13:30 | 3.07 | 505 | 12000 (2008) | 99 (1967) | 1010 | 129 | 209 | 296 | 333 | 608 | 1080 | 1380 | 1920 | 3440 |
| 2026-04-11 12:30 | 3.07 | 505 | 12000 (2008) | 99 (1967) | 1010 | 129 | 209 | 296 | 333 | 608 | 1080 | 1380 | 1920 | 3440 |
| 2026-04-11 11:30 | 3.08 | 509 | 12000 (2008) | 99 (1967) | 1010 | 129 | 209 | 296 | 333 | 608 | 1080 | 1380 | 1920 | 3440 |
| 2026-04-11 10:30 | 3.10 | 516 | 12000 (2008) | 99 (1967) | 1010 | 129 | 209 | 296 | 333 | 608 | 1080 | 1380 | 1920 | 3440 |
| 2026-04-11 09:30 | 3.14 | 532 | 12000 (2008) | 99 (1967) | 1010 | 129 | 209 | 296 | 333 | 608 | 1080 | 1380 | 1920 | 3440 |
| 2026-04-11 08:30 | 3.16 | 540 | 12000 (2008) | 99 (1967) | 1010 | 129 | 209 | 296 | 333 | 608 | 1080 | 1380 | 1920 | 3440 |
| 2026-04-11 07:30 | 3.09 | 512 | 12000 (2008) | 99 (1967) | 1010 | 129 | 209 | 296 | 333 | 608 | 1080 | 1380 | 1920 | 3440 |
| 2026-04-11 06:30 | 3.10 | 516 | 12000 (2008) | 99 (1967) | 1010 | 129 | 209 | 296 | 333 | 608 | 1080 | 1380 | 1920 | 3440 |
| 2026-04-11 05:30 | 3.10 | 516 | 12000 (2008) | 99 (1967) | 1010 | 129 | 209 | 296 | 333 | 608 | 1080 | 1380 | 1920 | 3440 |
| 2026-04-11 04:30 | 3.10 | 516 | 12000 (2008) | 99 (1967) | 1010 | 129 | 209 | 296 | 333 | 608 | 1080 | 1380 | 1920 | 3440 |
| 2026-04-11 03:30 | 3.11 | 520 | 12000 (2008) | 99 (1967) | 1010 | 129 | 209 | 296 | 333 | 608 | 1080 | 1380 | 1920 | 3440 |
| 2026-04-11 02:30 | 3.11 | 520 | 12000 (2008) | 99 (1967) | 1010 | 129 | 209 | 296 | 333 | 608 | 1080 | 1380 | 1920 | 3440 |
| 2026-04-11 01:30 | 3.12 | 524 | 12000 (2008) | 99 (1967) | 1010 | 129 | 209 | 296 | 333 | 608 | 1080 | 1380 | 1920 | 3440 |
| 2026-04-11 00:30 | 3.13 | 528 | 12000 (2008) | 99 (1967) | 1010 | 129 | 209 | 296 | 333 | 608 | 1080 | 1380 | 1920 | 3440 |
| 2026-04-10 23:30 | 3.13 | 528 | 12000 (2008) | 99 (1967) | 1010 | 129 | 209 | 296 | 333 | 608 | 1080 | 1380 | 1920 | 3440 |
| 2026-04-10 22:30 | 3.14 | 532 | 18700 (2008) | 82 (1967) | 972 | 127 | 205 | 283 | 313 | 568 | 873 | 1100 | 1700 | 2400 |
| 2026-04-10 21:30 | 3.14 | 532 | 18700 (2008) | 82 (1967) | 972 | 127 | 205 | 283 | 313 | 568 | 873 | 1100 | 1700 | 2400 |
| 2026-04-10 20:30 | 3.13 | 528 | 18700 (2008) | 82 (1967) | 972 | 127 | 205 | 283 | 313 | 568 | 873 | 1100 | 1700 | 2400 |
| 2026-04-10 19:30 | 3.15 | 536 | 18700 (2008) | 82 (1967) | 972 | 127 | 205 | 283 | 313 | 568 | 873 | 1100 | 1700 | 2400 |
| 2026-04-10 18:30 | 3.14 | 532 | 18700 (2008) | 82 (1967) | 972 | 127 | 205 | 283 | 313 | 568 | 873 | 1100 | 1700 | 2400 |
| 2026-04-10 17:30 | 3.12 | 524 | 18700 (2008) | 82 (1967) | 972 | 127 | 205 | 283 | 313 | 568 | 873 | 1100 | 1700 | 2400 |
| 2026-04-10 16:30 | 3.10 | 516 | 18700 (2008) | 82 (1967) | 972 | 127 | 205 | 283 | 313 | 568 | 873 | 1100 | 1700 | 2400 |
| 2026-04-10 15:30 | 3.11 | 520 | 18700 (2008) | 82 (1967) | 972 | 127 | 205 | 283 | 313 | 568 | 873 | 1100 | 1700 | 2400 |
| 2026-04-10 14:30 | 3.09 | 512 | 18700 (2008) | 82 (1967) | 972 | 127 | 205 | 283 | 313 | 568 | 873 | 1100 | 1700 | 2400 |
| 2026-04-10 13:30 | 3.10 | 516 | 18700 (2008) | 82 (1967) | 972 | 127 | 205 | 283 | 313 | 568 | 873 | 1100 | 1700 | 2400 |
| 2026-04-10 12:30 | 3.10 | 516 | 18700 (2008) | 82 (1967) | 972 | 127 | 205 | 283 | 313 | 568 | 873 | 1100 | 1700 | 2400 |
| 2026-04-10 11:30 | 3.17 | 544 | 18700 (2008) | 82 (1967) | 972 | 127 | 205 | 283 | 313 | 568 | 873 | 1100 | 1700 | 2400 |
| 2026-04-10 10:30 | 3.19 | 552 | 18700 (2008) | 82 (1967) | 972 | 127 | 205 | 283 | 313 | 568 | 873 | 1100 | 1700 | 2400 |
| 2026-04-10 09:30 | 3.21 | 560 | 18700 (2008) | 82 (1967) | 972 | 127 | 205 | 283 | 313 | 568 | 873 | 1100 | 1700 | 2400 |
| 2026-04-10 08:30 | 3.21 | 560 | 18700 (2008) | 82 (1967) | 972 | 127 | 205 | 283 | 313 | 568 | 873 | 1100 | 1700 | 2400 |
| 2026-04-10 07:30 | 3.18 | 548 | 18700 (2008) | 82 (1967) | 972 | 127 | 205 | 283 | 313 | 568 | 873 | 1100 | 1700 | 2400 |
| 2026-04-10 06:30 | 3.18 | 548 | 18700 (2008) | 82 (1967) | 972 | 127 | 205 | 283 | 313 | 568 | 873 | 1100 | 1700 | 2400 |
| 2026-04-10 05:30 | 3.18 | 548 | 18700 (2008) | 82 (1967) | 972 | 127 | 205 | 283 | 313 | 568 | 873 | 1100 | 1700 | 2400 |
| 2026-04-10 04:30 | 3.19 | 552 | 18700 (2008) | 82 (1967) | 972 | 127 | 205 | 283 | 313 | 568 | 873 | 1100 | 1700 | 2400 |
| 2026-04-10 03:30 | 3.19 | 552 | 18700 (2008) | 82 (1967) | 972 | 127 | 205 | 283 | 313 | 568 | 873 | 1100 | 1700 | 2400 |
| 2026-04-10 02:30 | 3.20 | 556 | 18700 (2008) | 82 (1967) | 972 | 127 | 205 | 283 | 313 | 568 | 873 | 1100 | 1700 | 2400 |
| 2026-04-10 01:30 | 3.20 | 556 | 18700 (2008) | 82 (1967) | 972 | 127 | 205 | 283 | 313 | 568 | 873 | 1100 | 1700 | 2400 |
| 2026-04-10 00:30 | 3.20 | 556 | 18700 (2008) | 82 (1967) | 972 | 127 | 205 | 283 | 313 | 568 | 873 | 1100 | 1700 | 2400 |
| 2026-04-09 23:30 | 3.21 | 560 | 18700 (2008) | 82 (1967) | 972 | 127 | 205 | 283 | 313 | 568 | 873 | 1100 | 1700 | 2400 |
A total of 738 rows are displayed for years 1956 through 2025.